Wetterdaten: Mittwoch, 12.04.2023
Datum Zeit Temp. Aussen Temp. o. S. Temp +5cm Feuchte Auss Luftdruck Regen Sonnenschein Regendauer Solar Windben Empfang
12.04.2023 00:00 10,2 C 9,4 C 6,1 C 74 % 1009,8 hPa 0,0 l/m 0 min 0 min 0 W/m 6,4 km/h (2 Bft) 97,14 %
12.04.2023 00:02 10,2 C 9,4 C 6,1 C 74 % 1009,6 hPa 0,0 l/m 0 min 0 min 0 W/m 6,4 km/h (2 Bft) 89,47 %
12.04.2023 00:04 10,2 C 9,4 C 6,1 C 74 % 1009,7 hPa 0,0 l/m 0 min 0 min 0 W/m 12,9 km/h (3 Bft) 91,84 %
12.04.2023 00:07 10,2 C 9,4 C 6,1 C 74 % 1009,6 hPa 0,0 l/m 0 min 0 min 0 W/m 9,7 km/h (2 Bft) 100,00 %
12.04.2023 00:14 10,1 C 9,4 C 6,1 C 74 % 1009,5 hPa 0,0 l/m 0 min 0 min 0 W/m 12,9 km/h (3 Bft) 98,36 %
12.04.2023 00:16 10,1 C 9,4 C 6,1 C 74 % 1009,5 hPa 0,0 l/m 0 min 0 min 0 W/m 6,4 km/h (2 Bft) 100,00 %
12.04.2023 00:18 10,1 C 9,4 C 6,1 C 74 % 1009,5 hPa 0,0 l/m 0 min 0 min 0 W/m 6,4 km/h (2 Bft) 100,00 %
12.04.2023 00:23 10,1 C 9,4 C 6,1 C 75 % 1009,4 hPa 0,0 l/m 0 min 0 min 0 W/m 12,9 km/h (3 Bft) 100,00 %
12.04.2023 00:26 10,1 C 9,4 C 6,1 C 75 % 1009,4 hPa 0,0 l/m 0 min 0 min 0 W/m 6,4 km/h (2 Bft) 100,00 %
12.04.2023 00:28 10,1 C 9,4 C 6,1 C 75 % 1009,4 hPa 0,0 l/m 0 min 0 min 0 W/m 12,9 km/h (3 Bft) 100,00 %
12.04.2023 00:30 10,1 C 9,4 C 6,1 C 75 % 1009,3 hPa 0,0 l/m 0 min 0 min 0 W/m 6,4 km/h (2 Bft) 100,00 %
12.04.2023 00:32 10,1 C 9,4 C 6,1 C 75 % 1009,2 hPa 0,0 l/m 0 min 0 min 0 W/m 12,9 km/h (3 Bft) 100,00 %
12.04.2023 00:34 10,1 C 9,4 C 6,1 C 75 % 1009,2 hPa 0,0 l/m 0 min 0 min 0 W/m 16,1 km/h (3 Bft) 97,87 %
12.04.2023 00:36 10,0 C 9,4 C 6,1 C 75 % 1009,2 hPa 0,0 l/m 0 min 0 min 0 W/m 12,9 km/h (3 Bft) 97,87 %
12.04.2023 00:38 10,0 C 9,4 C 6,1 C 75 % 1009,2 hPa 0,0 l/m 0 min 0 min 0 W/m 9,7 km/h (2 Bft) 94,44 %
12.04.2023 00:40 10,0 C 9,4 C 6,1 C 75 % 1009,2 hPa 0,0 l/m 0 min 0 min 0 W/m 12,9 km/h (3 Bft) 100,00 %
12.04.2023 00:42 10,0 C 9,4 C 6,1 C 75 % 1009,1 hPa 0,0 l/m 0 min 0 min 0 W/m 9,7 km/h (2 Bft) 100,00 %
12.04.2023 00:44 10,0 C 9,4 C 6,1 C 76 % 1009,0 hPa 0,0 l/m 0 min 0 min 0 W/m 12,9 km/h (3 Bft) 97,87 %
12.04.2023 00:46 9,9 C 9,4 C 6,1 C 76 % 1009,1 hPa 0,0 l/m 0 min 0 min 0 W/m 12,9 km/h (3 Bft) 97,87 %
12.04.2023 00:48 9,9 C 9,4 C 6,1 C 76 % 1009,0 hPa 0,0 l/m 0 min 0 min 0 W/m 6,4 km/h (2 Bft) 97,83 %
12.04.2023 00:50 9,9 C 9,4 C 6,1 C 76 % 1009,0 hPa 0,0 l/m 0 min 0 min 0 W/m 12,9 km/h (3 Bft) 95,74 %
12.04.2023 00:52 9,9 C 9,4 C 6,1 C 76 % 1009,0 hPa 0,0 l/m 0 min 0 min 0 W/m 12,9 km/h (3 Bft) 97,87 %
12.04.2023 00:54 9,9 C 9,4 C 6,1 C 76 % 1008,9 hPa 0,0 l/m 0 min 0 min 0 W/m 12,9 km/h (3 Bft) 97,87 %
12.04.2023 00:56 9,9 C 9,4 C 6,1 C 76 % 1008,9 hPa 0,0 l/m 0 min 0 min 0 W/m 12,9 km/h (3 Bft) 97,87 %
12.04.2023 00:58 9,9 C 9,4 C 6,1 C 76 % 1008,9 hPa 0,0 l/m 0 min 0 min 0 W/m 12,9 km/h (3 Bft) 97,87 %
12.04.2023 01:00 9,9 C 9,4 C 6,1 C 75 % 1008,8 hPa 0,0 l/m 0 min 0 min 0 W/m 16,1 km/h (3 Bft) 95,74 %
12.04.2023 01:02 9,9 C 9,4 C 6,1 C 76 % 1008,8 hPa 0,0 l/m 0 min 2 min 0 W/m 12,9 km/h (3 Bft) 95,65 %
12.04.2023 01:04 10,0 C 9,4 C 6,1 C 76 % 1008,8 hPa 0,0 l/m 0 min 0 min 0 W/m 16,1 km/h (3 Bft) 97,87 %
12.04.2023 01:06 10,0 C 9,4 C 6,1 C 76 % 1008,8 hPa 0,0 l/m 0 min 0 min 0 W/m 9,7 km/h (2 Bft) 98,31 %
12.04.2023 01:08 10,0 C 9,4 C 6,1 C 76 % 1008,7 hPa 0,0 l/m 0 min 0 min 0 W/m 6,4 km/h (2 Bft) 97,87 %
12.04.2023 01:10 10,0 C 9,4 C 6,1 C 76 % 1008,8 hPa 0,0 l/m 0 min 0 min 0 W/m 6,4 km/h (2 Bft) 94,29 %
12.04.2023 01:12 10,0 C 9,4 C 5,6 C 76 % 1008,8 hPa 0,0 l/m 0 min 0 min 0 W/m 6,4 km/h (2 Bft) 95,74 %
12.04.2023 01:14 10,1 C 9,4 C 5,6 C 76 % 1008,8 hPa 0,0 l/m 0 min 0 min 0 W/m 9,7 km/h (2 Bft) 100,00 %
12.04.2023 01:16 10,1 C 9,4 C 5,6 C 76 % 1008,7 hPa 0,0 l/m 0 min 0 min 0 W/m 12,9 km/h (3 Bft) 100,00 %
12.04.2023 01:18 10,1 C 9,4 C 6,1 C 76 % 1008,7 hPa 0,0 l/m 0 min 0 min 0 W/m 12,9 km/h (3 Bft) 97,87 %
12.04.2023 01:20 10,1 C 9,4 C 6,1 C 76 % 1008,7 hPa 0,0 l/m 0 min 0 min 0 W/m 12,9 km/h (3 Bft) 100,00 %
12.04.2023 01:22 10,1 C 9,4 C 6,1 C 76 % 1008,7 hPa 0,0 l/m 0 min 0 min 0 W/m 12,9 km/h (3 Bft) 97,87 %
12.04.2023 01:24 10,1 C 9,4 C 6,1 C 77 % 1008,7 hPa 0,0 l/m 0 min 0 min 0 W/m 12,9 km/h (3 Bft) 97,92 %
12.04.2023 01:26 10,1 C 9,4 C 5,6 C 77 % 1008,6 hPa 0,0 l/m 0 min 0 min 0 W/m 12,9 km/h (3 Bft) 100,00 %
12.04.2023 01:28 10,1 C 9,4 C 5,6 C 77 % 1008,5 hPa 0,0 l/m 0 min 2 min 0 W/m 9,7 km/h (2 Bft) 100,00 %
12.04.2023 01:30 10,1 C 9,4 C 5,0 C 78 % 1008,5 hPa 0,0 l/m 0 min 2 min 0 W/m 22,5 km/h (4 Bft) 97,87 %
12.04.2023 01:32 10,1 C 9,4 C 5,0 C 78 % 1008,5 hPa 0,0 l/m 0 min 2 min 0 W/m 16,1 km/h (3 Bft) 100,00 %
12.04.2023 01:34 10,1 C 8,9 C 5,0 C 78 % 1008,4 hPa 0,0 l/m 0 min 2 min 0 W/m 22,5 km/h (4 Bft) 100,00 %
12.04.2023 01:36 10,1 C 8,9 C 5,0 C 78 % 1008,4 hPa 0,0 l/m 0 min 2 min 0 W/m 16,1 km/h (3 Bft) 97,87 %
12.04.2023 01:38 10,0 C 8,9 C 5,0 C 79 % 1008,4 hPa 0,0 l/m 0 min 2 min 0 W/m 16,1 km/h (3 Bft) 100,00 %
12.04.2023 01:40 10,0 C 8,9 C 5,0 C 79 % 1008,3 hPa 0,0 l/m 0 min 2 min 0 W/m 12,9 km/h (3 Bft) 100,00 %
12.04.2023 01:42 9,9 C 8,9 C 4,4 C 79 % 1008,3 hPa 0,0 l/m 0 min 2 min 0 W/m 22,5 km/h (4 Bft) 97,87 %
12.04.2023 01:44 9,9 C 8,9 C 4,4 C 79 % 1008,2 hPa 0,0 l/m 0 min 2 min 0 W/m 19,3 km/h (3 Bft) 100,00 %
12.04.2023 01:46 9,9 C 8,9 C 4,4 C 80 % 1008,2 hPa 0,0 l/m 0 min 0 min 0 W/m 12,9 km/h (3 Bft) 100,00 %
12.04.2023 01:48 9,8 C 8,9 C 4,4 C 80 % 1008,1 hPa 0,0 l/m 0 min 0 min 0 W/m 9,7 km/h (2 Bft) 97,87 %
12.04.2023 01:50 9,8 C 8,9 C 4,4 C 80 % 1008,0 hPa 0,0 l/m 0 min 0 min 0 W/m 12,9 km/h (3 Bft) 100,00 %
12.04.2023 01:52 9,8 C 8,9 C 4,4 C 80 % 1008,0 hPa 0,0 l/m 0 min 0 min 0 W/m 6,4 km/h (2 Bft) 97,87 %
12.04.2023 01:54 9,8 C 8,9 C 4,4 C 81 % 1008,0 hPa 0,0 l/m 0 min 2 min 0 W/m 9,7 km/h (2 Bft) 97,87 %
12.04.2023 01:56 9,7 C 8,9 C 4,4 C 81 % 1008,0 hPa 0,0 l/m 0 min 0 min 0 W/m 12,9 km/h (3 Bft) 97,83 %
12.04.2023 01:58 9,7 C 8,9 C 4,4 C 81 % 1007,9 hPa 0,0 l/m 0 min 0 min 0 W/m 16,1 km/h (3 Bft) 100,00 %
12.04.2023 02:00 9,7 C 8,3 C 4,4 C 81 % 1007,8 hPa 0,0 l/m 0 min 2 min 0 W/m 12,9 km/h (3 Bft) 97,87 %
12.04.2023 02:02 9,6 C 8,3 C 4,4 C 81 % 1007,8 hPa 0,0 l/m 0 min 0 min 0 W/m 9,7 km/h (2 Bft) 100,00 %
12.04.2023 02:04 9,6 C 8,3 C 4,4 C 82 % 1007,7 hPa 0,0 l/m 0 min 0 min 0 W/m 9,7 km/h (2 Bft) 97,87 %
12.04.2023 02:06 9,6 C 8,3 C 4,4 C 82 % 1007,7 hPa 0,0 l/m 0 min 0 min 0 W/m 16,1 km/h (3 Bft) 94,83 %
12.04.2023 02:08 9,6 C 8,3 C 4,4 C 82 % 1007,7 hPa 0,0 l/m 0 min 0 min 0 W/m 12,9 km/h (3 Bft) 97,14 %
12.04.2023 02:10 9,6 C 8,3 C 4,4 C 82 % 1007,6 hPa 0,0 l/m 0 min 0 min 0 W/m 9,7 km/h (2 Bft) 97,87 %
12.04.2023 02:12 9,5 C 8,3 C 4,4 C 82 % 1007,6 hPa 0,0 l/m 0 min 0 min 0 W/m 6,4 km/h (2 Bft) 97,87 %
12.04.2023 02:14 9,5 C 8,3 C 4,4 C 82 % 1007,6 hPa 0,0 l/m 0 min 0 min 0 W/m 12,9 km/h (3 Bft) 97,87 %
12.04.2023 02:16 9,5 C 8,3 C 4,4 C 83 % 1007,5 hPa 0,0 l/m 0 min 0 min 0 W/m 12,9 km/h (3 Bft) 95,74 %
12.04.2023 02:18 9,4 C 8,3 C 4,4 C 83 % 1007,5 hPa 0,0 l/m 0 min 2 min 0 W/m 19,3 km/h (3 Bft) 95,74 %
12.04.2023 02:20 9,4 C 8,3 C 4,4 C 83 % 1007,4 hPa 0,0 l/m 0 min 2 min 0 W/m 12,9 km/h (3 Bft) 97,87 %
12.04.2023 02:22 9,4 C 8,3 C 4,4 C 83 % 1007,3 hPa 0,0 l/m 0 min 0 min 0 W/m 16,1 km/h (3 Bft) 97,83 %
12.04.2023 02:24 9,4 C 8,3 C 4,4 C 84 % 1007,3 hPa 0,0 l/m 0 min 2 min 0 W/m 12,9 km/h (3 Bft) 96,00 %
12.04.2023 02:26 9,3 C 8,3 C 4,4 C 84 % 1007,2 hPa 0,0 l/m 0 min 0 min 0 W/m 16,1 km/h (3 Bft) 97,92 %
12.04.2023 02:28 9,3 C 8,3 C 4,4 C 84 % 1007,1 hPa 0,0 l/m 0 min 0 min 0 W/m 9,7 km/h (2 Bft) 91,49 %
12.04.2023 02:30 9,3 C 8,3 C 4,4 C 84 % 1007,0 hPa 0,0 l/m 0 min 2 min 0 W/m 16,1 km/h (3 Bft) 91,49 %
12.04.2023 02:32 9,3 C 8,3 C 4,4 C 84 % 1007,0 hPa 0,0 l/m 0 min 2 min 0 W/m 12,9 km/h (3 Bft) 93,48 %
12.04.2023 02:34 9,2 C 8,3 C 4,4 C 84 % 1007,0 hPa 0,0 l/m 0 min 2 min 0 W/m 12,9 km/h (3 Bft) 88,10 %
12.04.2023 02:36 9,2 C 8,3 C 4,4 C 85 % 1007,0 hPa 0,0 l/m 0 min 0 min 0 W/m 12,9 km/h (3 Bft) 91,30 %
12.04.2023 02:38 9,2 C 8,3 C 4,4 C 85 % 1007,0 hPa 0,0 l/m 0 min 2 min 0 W/m 6,4 km/h (2 Bft) 93,62 %
12.04.2023 02:40 9,2 C 8,3 C 4,4 C 85 % 1006,9 hPa 0,0 l/m 0 min 2 min 0 W/m 12,9 km/h (3 Bft) 93,62 %
12.04.2023 02:42 9,1 C 8,3 C 4,4 C 85 % 1006,8 hPa 0,2 l/m 0 min 2 min 0 W/m 16,1 km/h (3 Bft) 91,67 %
12.04.2023 02:44 9,1 C 8,3 C 4,4 C 85 % 1006,8 hPa 0,0 l/m 0 min 0 min 0 W/m 16,1 km/h (3 Bft) 93,62 %
12.04.2023 02:46 9,1 C 8,3 C 4,4 C 85 % 1006,7 hPa 0,0 l/m 0 min 2 min 0 W/m 16,1 km/h (3 Bft) 91,49 %
12.04.2023 02:48 9,1 C 8,3 C 4,4 C 85 % 1006,7 hPa 0,0 l/m 0 min 2 min 0 W/m 12,9 km/h (3 Bft) 91,49 %
12.04.2023 02:50 9,1 C 7,8 C 3,9 C 86 % 1006,8 hPa 0,0 l/m 0 min 2 min 0 W/m 6,4 km/h (2 Bft) 95,65 %
12.04.2023 02:52 9,1 C 7,8 C 3,9 C 86 % 1006,7 hPa 0,0 l/m 0 min 2 min 0 W/m 12,9 km/h (3 Bft) 93,75 %
12.04.2023 02:54 9,1 C 7,8 C 3,9 C 86 % 1006,7 hPa 0,0 l/m 0 min 2 min 0 W/m 16,1 km/h (3 Bft) 95,74 %
12.04.2023 02:56 9,0 C 7,8 C 3,9 C 86 % 1006,6 hPa 0,0 l/m 0 min 2 min 0 W/m 12,9 km/h (3 Bft) 95,74 %
12.04.2023 02:58 9,0 C 7,8 C 3,9 C 87 % 1006,5 hPa 0,0 l/m 0 min 2 min 0 W/m 12,9 km/h (3 Bft) 93,62 %
12.04.2023 03:00 8,9 C 7,8 C 3,9 C 87 % 1006,5 hPa 0,0 l/m 0 min 2 min 0 W/m 12,9 km/h (3 Bft) 95,74 %
12.04.2023 03:02 8,9 C 7,8 C 3,9 C 87 % 1006,4 hPa 0,0 l/m 0 min 2 min 0 W/m 16,1 km/h (3 Bft) 95,65 %
12.04.2023 03:04 8,9 C 7,8 C 3,9 C 87 % 1006,4 hPa 0,0 l/m 0 min 2 min 0 W/m 19,3 km/h (3 Bft) 95,74 %
12.04.2023 03:06 8,8 C 7,8 C 3,3 C 87 % 1006,2 hPa 0,2 l/m 0 min 2 min 0 W/m 19,3 km/h (3 Bft) 98,31 %
12.04.2023 03:08 8,8 C 7,8 C 3,3 C 88 % 1006,1 hPa 0,0 l/m 0 min 2 min 0 W/m 12,9 km/h (3 Bft) 97,44 %
12.04.2023 03:10 8,8 C 7,8 C 3,3 C 88 % 1006,2 hPa 0,0 l/m 0 min 2 min 0 W/m 16,1 km/h (3 Bft) 97,87 %
12.04.2023 03:12 8,8 C 7,8 C 3,3 C 88 % 1006,3 hPa 0,0 l/m 0 min 2 min 0 W/m 12,9 km/h (3 Bft) 97,14 %
12.04.2023 03:14 8,7 C 7,8 C 3,3 C 88 % 1006,2 hPa 0,0 l/m 0 min 2 min 0 W/m 16,1 km/h (3 Bft) 96,36 %
12.04.2023 03:16 8,7 C 7,8 C 3,3 C 89 % 1006,2 hPa 0,0 l/m 0 min 2 min 0 W/m 22,5 km/h (4 Bft) 97,87 %
12.04.2023 03:18 8,7 C 7,8 C 3,3 C 89 % 1006,1 hPa 0,0 l/m 0 min 2 min 0 W/m 16,1 km/h (3 Bft) 97,96 %
12.04.2023 03:20 8,6 C 7,8 C 3,3 C 89 % 1006,0 hPa 0,0 l/m 0 min 2 min 0 W/m 12,9 km/h (3 Bft) 95,74 %
12.04.2023 03:22 8,6 C 7,2 C 3,3 C 89 % 1005,9 hPa 0,0 l/m 0 min 2 min 0 W/m 12,9 km/h (3 Bft) 97,87 %
12.04.2023 03:24 8,6 C 7,2 C 3,3 C 89 % 1005,9 hPa 0,0 l/m 0 min 2 min 0 W/m 12,9 km/h (3 Bft) 97,87 %
12.04.2023 03:26 8,6 C 7,2 C 3,3 C 89 % 1005,9 hPa 0,2 l/m 0 min 2 min 0 W/m 16,1 km/h (3 Bft) 100,00 %
12.04.2023 03:28 8,5 C 7,2 C 3,3 C 89 % 1005,8 hPa 0,0 l/m 0 min 2 min 0 W/m 12,9 km/h (3 Bft) 100,00 %
12.04.2023 03:30 8,5 C 7,2 C 3,3 C 90 % 1005,7 hPa 0,0 l/m 0 min 2 min 0 W/m 16,1 km/h (3 Bft) 100,00 %
12.04.2023 03:32 8,4 C 7,2 C 3,3 C 90 % 1005,7 hPa 0,0 l/m 0 min 2 min 0 W/m 16,1 km/h (3 Bft) 97,14 %
12.04.2023 03:34 8,4 C 7,2 C 3,3 C 90 % 1005,7 hPa 0,0 l/m 0 min 2 min 0 W/m 12,9 km/h (3 Bft) 100,00 %
12.04.2023 03:36 8,4 C 7,2 C 3,3 C 90 % 1005,7 hPa 0,0 l/m 0 min 2 min 0 W/m 16,1 km/h (3 Bft) 97,87 %
12.04.2023 03:38 8,4 C 7,2 C 3,3 C 90 % 1005,6 hPa 0,0 l/m 0 min 2 min 0 W/m 12,9 km/h (3 Bft) 100,00 %
12.04.2023 03:40 8,3 C 7,2 C 3,3 C 90 % 1005,6 hPa 0,0 l/m 0 min 2 min 0 W/m 12,9 km/h (3 Bft) 97,87 %
12.04.2023 03:42 8,3 C 7,2 C 3,3 C 90 % 1005,5 hPa 0,2 l/m 0 min 2 min 0 W/m 9,7 km/h (2 Bft) 100,00 %
12.04.2023 03:44 8,3 C 7,2 C 3,3 C 91 % 1005,4 hPa 0,0 l/m 0 min 2 min 0 W/m 16,1 km/h (3 Bft) 100,00 %
12.04.2023 03:46 8,3 C 7,2 C 3,3 C 91 % 1005,4 hPa 0,0 l/m 0 min 2 min 0 W/m 16,1 km/h (3 Bft) 100,00 %
12.04.2023 03:48 8,3 C 7,2 C 3,3 C 91 % 1005,2 hPa 0,0 l/m 0 min 2 min 0 W/m 19,3 km/h (3 Bft) 100,00 %
12.04.2023 03:50 8,2 C 7,2 C 3,3 C 91 % 1005,2 hPa 0,0 l/m 0 min 2 min 0 W/m 22,5 km/h (4 Bft) 100,00 %
12.04.2023 03:52 8,2 C 7,2 C 3,3 C 91 % 1005,1 hPa 0,0 l/m 0 min 2 min 0 W/m 12,9 km/h (3 Bft) 97,87 %
12.04.2023 03:54 8,2 C 7,2 C 3,3 C 91 % 1005,1 hPa 0,0 l/m 0 min 2 min 0 W/m 19,3 km/h (3 Bft) 97,87 %
12.04.2023 03:56 8,2 C 7,2 C 3,3 C 91 % 1005,0 hPa 0,0 l/m 0 min 2 min 0 W/m 16,1 km/h (3 Bft) 100,00 %
12.04.2023 03:58 8,2 C 7,2 C 3,3 C 91 % 1005,0 hPa 0,0 l/m 0 min 2 min 0 W/m 12,9 km/h (3 Bft) 100,00 %
12.04.2023 04:00 8,1 C 7,2 C 3,3 C 91 % 1005,0 hPa 0,0 l/m 0 min 2 min 0 W/m 16,1 km/h (3 Bft) 100,00 %
12.04.2023 04:02 8,1 C 7,2 C 3,3 C 91 % 1004,9 hPa 0,0 l/m 0 min 2 min 0 W/m 12,9 km/h (3 Bft) 100,00 %
12.04.2023 04:04 8,1 C 7,2 C 3,3 C 91 % 1004,8 hPa 0,0 l/m 0 min 2 min 0 W/m 12,9 km/h (3 Bft) 97,87 %
12.04.2023 04:06 8,1 C 7,2 C 3,3 C 91 % 1004,7 hPa 0,0 l/m 0 min 2 min 0 W/m 6,4 km/h (2 Bft) 100,00 %
12.04.2023 04:08 8,1 C 7,2 C 3,3 C 91 % 1004,7 hPa 0,0 l/m 0 min 2 min 0 W/m 16,1 km/h (3 Bft) 100,00 %
12.04.2023 04:10 8,1 C 7,2 C 3,3 C 91 % 1004,7 hPa 0,0 l/m 0 min 2 min 0 W/m 16,1 km/h (3 Bft) 100,00 %
12.04.2023 04:12 8,1 C 7,2 C 3,3 C 92 % 1004,6 hPa 0,0 l/m 0 min 0 min 0 W/m 16,1 km/h (3 Bft) 100,00 %
12.04.2023 04:14 8,1 C 7,2 C 3,3 C 92 % 1004,6 hPa 0,0 l/m 0 min 0 min 0 W/m 19,3 km/h (3 Bft) 97,87 %
12.04.2023 04:16 8,0 C 7,2 C 3,3 C 92 % 1004,5 hPa 0,0 l/m 0 min 0 min 0 W/m 16,1 km/h (3 Bft) 100,00 %
12.04.2023 04:18 8,0 C 7,2 C 3,3 C 92 % 1004,5 hPa 0,0 l/m 0 min 2 min 0 W/m 19,3 km/h (3 Bft) 94,74 %
12.04.2023 04:20 8,0 C 7,2 C 3,3 C 92 % 1004,5 hPa 0,0 l/m 0 min 2 min 0 W/m 19,3 km/h (3 Bft) 97,87 %
12.04.2023 04:22 8,0 C 7,2 C 3,3 C 92 % 1004,5 hPa 0,0 l/m 0 min 2 min 0 W/m 22,5 km/h (4 Bft) 97,87 %
12.04.2023 04:24 7,9 C 7,2 C 3,3 C 92 % 1004,5 hPa 0,0 l/m 0 min 2 min 0 W/m 19,3 km/h (3 Bft) 95,65 %
12.04.2023 04:26 7,9 C 7,2 C 3,3 C 92 % 1004,4 hPa 0,0 l/m 0 min 2 min 0 W/m 16,1 km/h (3 Bft) 93,62 %
12.04.2023 04:28 7,9 C 7,2 C 3,3 C 92 % 1004,3 hPa 0,0 l/m 0 min 2 min 0 W/m 22,5 km/h (4 Bft) 93,62 %
12.04.2023 04:30 7,9 C 7,2 C 3,3 C 92 % 1004,4 hPa 0,2 l/m 0 min 0 min 0 W/m 25,7 km/h (4 Bft) 95,74 %
12.04.2023 04:32 7,9 C 7,2 C 3,3 C 92 % 1004,3 hPa 0,0 l/m 0 min 0 min 0 W/m 22,5 km/h (4 Bft) 91,49 %
12.04.2023 04:34 7,9 C 7,2 C 3,3 C 92 % 1004,2 hPa 0,0 l/m 0 min 2 min 0 W/m 19,3 km/h (3 Bft) 97,14 %
12.04.2023 04:36 7,9 C 7,2 C 3,3 C 92 % 1004,1 hPa 0,0 l/m 0 min 2 min 0 W/m 16,1 km/h (3 Bft) 94,92 %
12.04.2023 04:38 7,9 C 7,2 C 2,8 C 92 % 1004,0 hPa 0,0 l/m 0 min 2 min 0 W/m 22,5 km/h (4 Bft) 95,65 %
12.04.2023 04:40 7,8 C 7,2 C 2,8 C 92 % 1004,0 hPa 0,0 l/m 0 min 2 min 0 W/m 19,3 km/h (3 Bft) 93,62 %
12.04.2023 04:42 7,8 C 7,2 C 2,8 C 92 % 1004,0 hPa 0,0 l/m 0 min 2 min 0 W/m 22,5 km/h (4 Bft) 93,62 %
12.04.2023 04:44 7,8 C 7,2 C 2,8 C 92 % 1004,0 hPa 0,0 l/m 0 min 2 min 0 W/m 16,1 km/h (3 Bft) 95,74 %
12.04.2023 04:46 7,8 C 7,2 C 2,8 C 92 % 1003,9 hPa 0,0 l/m 0 min 2 min 0 W/m 22,5 km/h (4 Bft) 97,87 %
12.04.2023 04:48 7,8 C 7,2 C 2,8 C 92 % 1003,9 hPa 0,0 l/m 0 min 0 min 0 W/m 25,7 km/h (4 Bft) 97,87 %
12.04.2023 04:50 7,8 C 7,2 C 2,8 C 92 % 1003,8 hPa 0,0 l/m 0 min 0 min 0 W/m 29,0 km/h (5 Bft) 97,87 %
12.04.2023 04:52 7,8 C 7,2 C 2,8 C 92 % 1003,6 hPa 0,0 l/m 0 min 0 min 0 W/m 25,7 km/h (4 Bft) 97,83 %
12.04.2023 04:54 7,8 C 7,2 C 2,8 C 92 % 1003,6 hPa 0,0 l/m 0 min 2 min 0 W/m 22,5 km/h (4 Bft) 97,87 %
12.04.2023 04:56 7,8 C 7,2 C 2,8 C 92 % 1003,6 hPa 0,0 l/m 0 min 2 min 0 W/m 29,0 km/h (5 Bft) 97,87 %
12.04.2023 04:58 7,8 C 6,7 C 2,8 C 92 % 1003,5 hPa 0,0 l/m 0 min 2 min 0 W/m 16,1 km/h (3 Bft) 97,87 %
12.04.2023 05:00 7,7 C 6,7 C 2,8 C 92 % 1003,4 hPa 0,2 l/m 0 min 2 min 0 W/m 16,1 km/h (3 Bft) 54,55 %
12.04.2023 05:02 7,7 C 6,7 C 2,8 C 92 % 1003,3 hPa 0,0 l/m 0 min 0 min 0 W/m 25,7 km/h (4 Bft) 95,74 %
12.04.2023 05:04 7,7 C 6,7 C 2,8 C 92 % 1003,2 hPa 0,0 l/m 0 min 0 min 0 W/m 25,7 km/h (4 Bft) 100,00 %
12.04.2023 05:06 7,7 C 6,7 C 2,8 C 92 % 1003,3 hPa 0,0 l/m 0 min 0 min 0 W/m 19,3 km/h (3 Bft) 100,00 %
12.04.2023 05:08 7,7 C 6,7 C 2,8 C 92 % 1003,2 hPa 0,0 l/m 0 min 0 min 0 W/m 22,5 km/h (4 Bft) 98,08 %
12.04.2023 05:10 7,7 C 6,7 C 2,8 C 93 % 1003,1 hPa 0,0 l/m 0 min 0 min 0 W/m 25,7 km/h (4 Bft) 100,00 %
12.04.2023 05:12 7,7 C 6,7 C 2,8 C 93 % 1003,0 hPa 0,0 l/m 0 min 0 min 0 W/m 12,9 km/h (3 Bft) 100,00 %
12.04.2023 05:14 7,7 C 7,2 C 2,8 C 93 % 1002,9 hPa 0,0 l/m 0 min 0 min 0 W/m 19,3 km/h (3 Bft) 100,00 %
12.04.2023 05:16 7,7 C 7,2 C 2,8 C 93 % 1002,8 hPa 0,0 l/m 0 min 0 min 0 W/m 16,1 km/h (3 Bft) 97,87 %
12.04.2023 05:18 7,7 C 7,2 C 2,8 C 93 % 1002,8 hPa 0,0 l/m 0 min 0 min 0 W/m 19,3 km/h (3 Bft) 100,00 %
12.04.2023 05:20 7,7 C 7,2 C 2,8 C 93 % 1002,7 hPa 0,0 l/m 0 min 0 min 0 W/m 22,5 km/h (4 Bft) 100,00 %
12.04.2023 05:22 7,7 C 7,2 C 2,8 C 93 % 1002,7 hPa 0,0 l/m 0 min 0 min 0 W/m 16,1 km/h (3 Bft) 100,00 %
12.04.2023 05:24 7,7 C 7,2 C 2,8 C 93 % 1002,7 hPa 0,0 l/m 0 min 0 min 0 W/m 19,3 km/h (3 Bft) 97,87 %
12.04.2023 05:26 7,7 C 7,2 C 2,8 C 93 % 1002,7 hPa 0,0 l/m 0 min 0 min 0 W/m 19,3 km/h (3 Bft) 97,87 %
12.04.2023 05:28 7,7 C 7,2 C 2,8 C 93 % 1002,6 hPa 0,0 l/m 0 min 0 min 0 W/m 22,5 km/h (4 Bft) 97,87 %
12.04.2023 05:30 7,7 C 7,2 C 2,8 C 93 % 1002,5 hPa 0,0 l/m 0 min 0 min 0 W/m 29,0 km/h (5 Bft) 100,00 %
12.04.2023 05:32 7,7 C 7,2 C 2,8 C 93 % 1002,4 hPa 0,0 l/m 0 min 0 min 0 W/m 19,3 km/h (3 Bft) 100,00 %
12.04.2023 05:34 7,7 C 7,2 C 2,8 C 93 % 1002,4 hPa 0,0 l/m 0 min 0 min 0 W/m 22,5 km/h (4 Bft) 100,00 %
12.04.2023 05:36 7,7 C 7,2 C 2,8 C 93 % 1002,3 hPa 0,0 l/m 0 min 0 min 0 W/m 19,3 km/h (3 Bft) 100,00 %
12.04.2023 05:38 7,7 C 7,2 C 2,8 C 93 % 1002,2 hPa 0,0 l/m 0 min 0 min 0 W/m 22,5 km/h (4 Bft) 100,00 %
12.04.2023 05:40 7,7 C 7,2 C 2,8 C 93 % 1002,1 hPa 0,0 l/m 0 min 0 min 0 W/m 19,3 km/h (3 Bft) 97,87 %
12.04.2023 05:42 7,7 C 7,2 C 2,8 C 93 % 1002,2 hPa 0,0 l/m 0 min 0 min 0 W/m 22,5 km/h (4 Bft) 100,00 %
12.04.2023 05:44 7,7 C 7,2 C 2,8 C 93 % 1002,1 hPa 0,0 l/m 0 min 0 min 0 W/m 25,7 km/h (4 Bft) 100,00 %
12.04.2023 05:46 7,7 C 7,2 C 2,8 C 93 % 1002,0 hPa 0,0 l/m 0 min 0 min 0 W/m 35,4 km/h (5 Bft) 100,00 %
12.04.2023 05:48 7,7 C 7,2 C 2,8 C 93 % 1002,0 hPa 0,0 l/m 0 min 0 min 0 W/m 25,7 km/h (4 Bft) 97,83 %
12.04.2023 05:50 7,7 C 7,2 C 2,8 C 93 % 1001,9 hPa 0,0 l/m 0 min 0 min 0 W/m 25,7 km/h (4 Bft) 97,87 %
12.04.2023 05:52 7,7 C 7,2 C 2,8 C 93 % 1001,9 hPa 0,0 l/m 0 min 0 min 0 W/m 16,1 km/h (3 Bft) 97,87 %
12.04.2023 05:54 7,7 C 7,2 C 2,8 C 93 % 1001,8 hPa 0,0 l/m 0 min 0 min 0 W/m 22,5 km/h (4 Bft) 97,87 %
12.04.2023 05:56 7,8 C 7,2 C 2,8 C 93 % 1001,7 hPa 0,0 l/m 0 min 0 min 0 W/m 22,5 km/h (4 Bft) 97,87 %
12.04.2023 05:58 7,8 C 7,2 C 2,8 C 93 % 1001,7 hPa 0,0 l/m 0 min 0 min 0 W/m 22,5 km/h (4 Bft) 95,74 %
12.04.2023 06:00 7,8 C 7,2 C 3,3 C 93 % 1001,7 hPa 0,0 l/m 0 min 0 min 0 W/m 22,5 km/h (4 Bft) 95,74 %
12.04.2023 06:02 7,8 C 7,2 C 3,3 C 93 % 1001,7 hPa 0,0 l/m 0 min 0 min 0 W/m 19,3 km/h (3 Bft) 95,65 %
12.04.2023 06:04 7,8 C 7,2 C 3,3 C 93 % 1001,7 hPa 0,0 l/m 0 min 0 min 0 W/m 22,5 km/h (4 Bft) 95,74 %
12.04.2023 06:07 7,8 C 7,2 C 3,3 C 93 % 1001,6 hPa 0,0 l/m 0 min 0 min 0 W/m 25,7 km/h (4 Bft) 93,15 %
12.04.2023 06:08 7,8 C 7,2 C 3,3 C 93 % 1001,6 hPa 0,0 l/m 0 min 0 min 0 W/m 19,3 km/h (3 Bft) 95,65 %
12.04.2023 06:12 7,8 C 7,2 C 3,3 C 93 % 1001,5 hPa 0,0 l/m 0 min 0 min 0 W/m 22,5 km/h (4 Bft) 94,74 %
12.04.2023 06:14 7,8 C 7,2 C 3,3 C 93 % 1001,5 hPa 0,0 l/m 0 min 0 min 0 W/m 25,7 km/h (4 Bft) 93,62 %
12.04.2023 06:16 7,8 C 7,2 C 3,3 C 93 % 1001,5 hPa 0,0 l/m 0 min 0 min 0 W/m 22,5 km/h (4 Bft) 91,49 %
12.04.2023 06:18 7,8 C 7,2 C 3,3 C 93 % 1001,4 hPa 0,0 l/m 0 min 0 min 0 W/m 19,3 km/h (3 Bft) 89,36 %
12.04.2023 06:20 7,9 C 7,2 C 3,3 C 93 % 1001,4 hPa 0,0 l/m 0 min 0 min 0 W/m 9,7 km/h (2 Bft) 96,22 %
12.04.2023 06:22 7,9 C 7,2 C 3,3 C 93 % 1001,3 hPa 0,0 l/m 0 min 2 min 0 W/m 19,3 km/h (3 Bft) 93,02 %
12.04.2023 06:24 7,9 C 7,2 C 3,3 C 93 % 1001,3 hPa 0,0 l/m 0 min 2 min 0 W/m 22,5 km/h (4 Bft) 95,74 %
12.04.2023 06:26 7,9 C 7,2 C 3,3 C 93 % 1001,3 hPa 0,0 l/m 0 min 0 min 0 W/m 16,1 km/h (3 Bft) 93,62 %
12.04.2023 06:28 7,9 C 7,2 C 3,3 C 93 % 1001,3 hPa 0,0 l/m 0 min 0 min 0 W/m 22,5 km/h (4 Bft) 93,62 %
12.04.2023 06:30 7,9 C 7,2 C 3,3 C 93 % 1001,2 hPa 0,0 l/m 0 min 0 min 0 W/m 16,1 km/h (3 Bft) 93,62 %
12.04.2023 06:32 7,9 C 7,2 C 3,3 C 93 % 1001,2 hPa 0,0 l/m 0 min 0 min 0 W/m 12,9 km/h (3 Bft) 91,49 %
12.04.2023 06:34 7,9 C 7,2 C 3,3 C 93 % 1001,2 hPa 0,0 l/m 0 min 2 min 0 W/m 16,1 km/h (3 Bft) 95,65 %
12.04.2023 06:36 7,9 C 7,2 C 3,3 C 93 % 1001,2 hPa 0,0 l/m 0 min 0 min 0 W/m 19,3 km/h (3 Bft) 95,74 %
12.04.2023 06:38 7,9 C 7,2 C 3,3 C 93 % 1001,1 hPa 0,0 l/m 0 min 2 min 0 W/m 16,1 km/h (3 Bft) 95,74 %
12.04.2023 06:40 7,9 C 7,2 C 3,3 C 93 % 1001,1 hPa 0,0 l/m 0 min 2 min 0 W/m 22,5 km/h (4 Bft) 95,74 %
12.04.2023 06:42 7,8 C 7,2 C 3,3 C 93 % 1001,0 hPa 0,0 l/m 0 min 2 min 0 W/m 22,5 km/h (4 Bft) 95,74 %
12.04.2023 06:44 7,8 C 7,2 C 3,3 C 93 % 1001,0 hPa 0,0 l/m 0 min 2 min 0 W/m 19,3 km/h (3 Bft) 97,87 %
12.04.2023 06:46 7,8 C 7,2 C 3,3 C 93 % 1001,0 hPa 0,0 l/m 0 min 2 min 0 W/m 22,5 km/h (4 Bft) 95,74 %
12.04.2023 06:48 7,8 C 6,7 C 3,3 C 93 % 1001,0 hPa 0,0 l/m 0 min 2 min 0 W/m 25,7 km/h (4 Bft) 95,65 %
12.04.2023 06:50 7,8 C 6,7 C 3,3 C 93 % 1001,0 hPa 0,0 l/m 0 min 2 min 0 W/m 16,1 km/h (3 Bft) 97,87 %
12.04.2023 06:52 7,8 C 6,7 C 3,3 C 93 % 1001,0 hPa 0,0 l/m 0 min 2 min 0 W/m 25,7 km/h (4 Bft) 97,87 %
12.04.2023 06:54 7,8 C 6,7 C 3,3 C 93 % 1001,0 hPa 0,2 l/m 0 min 2 min 0 W/m 22,5 km/h (4 Bft) 97,87 %
12.04.2023 06:56 7,8 C 6,7 C 3,3 C 93 % 1000,9 hPa 0,0 l/m 0 min 2 min 0 W/m 19,3 km/h (3 Bft) 95,74 %
12.04.2023 06:58 7,8 C 6,7 C 3,3 C 93 % 1000,9 hPa 0,0 l/m 0 min 2 min 0 W/m 19,3 km/h (3 Bft) 97,87 %
12.04.2023 07:00 7,8 C 6,7 C 3,3 C 94 % 1000,8 hPa 0,2 l/m 0 min 2 min 0 W/m 12,9 km/h (3 Bft) 97,87 %
12.04.2023 07:02 7,8 C 6,7 C 3,3 C 94 % 1000,8 hPa 0,0 l/m 0 min 2 min 0 W/m 19,3 km/h (3 Bft) 97,83 %
12.04.2023 07:04 7,8 C 6,7 C 3,3 C 94 % 1000,8 hPa 0,0 l/m 0 min 2 min 0 W/m 19,3 km/h (3 Bft) 95,74 %
12.04.2023 07:06 7,8 C 6,7 C 3,3 C 94 % 1000,8 hPa 0,2 l/m 0 min 2 min 0 W/m 22,5 km/h (4 Bft) 98,31 %
12.04.2023 07:08 7,8 C 6,7 C 3,3 C 94 % 1000,7 hPa 0,0 l/m 0 min 2 min 0 W/m 22,5 km/h (4 Bft) 97,14 %
12.04.2023 07:10 7,7 C 6,7 C 3,3 C 94 % 1000,7 hPa 0,0 l/m 0 min 2 min 0 W/m 25,7 km/h (4 Bft) 97,87 %
12.04.2023 07:12 7,7 C 6,7 C 3,3 C 94 % 1000,7 hPa 0,2 l/m 0 min 2 min 0 W/m 22,5 km/h (4 Bft) 95,74 %
12.04.2023 07:14 7,7 C 6,7 C 3,3 C 94 % 1000,7 hPa 0,0 l/m 0 min 2 min 0 W/m 16,1 km/h (3 Bft) 97,83 %
12.04.2023 07:16 7,7 C 6,7 C 3,3 C 94 % 1000,6 hPa 0,0 l/m 0 min 2 min 1 W/m 19,3 km/h (3 Bft) 97,87 %
12.04.2023 07:18 7,7 C 6,7 C 3,3 C 94 % 1000,7 hPa 0,0 l/m 0 min 2 min 5 W/m 16,1 km/h (3 Bft) 93,62 %
12.04.2023 07:20 7,7 C 6,7 C 3,3 C 94 % 1000,7 hPa 0,2 l/m 0 min 2 min 5 W/m 19,3 km/h (3 Bft) 100,00 %
12.04.2023 07:22 7,7 C 6,7 C 3,3 C 94 % 1000,6 hPa 0,0 l/m 0 min 2 min 6 W/m 19,3 km/h (3 Bft) 100,00 %
12.04.2023 07:24 7,7 C 6,7 C 3,3 C 94 % 1000,6 hPa 0,0 l/m 0 min 2 min 7 W/m 22,5 km/h (4 Bft) 100,00 %
12.04.2023 07:26 7,7 C 6,7 C 3,3 C 94 % 1000,5 hPa 0,2 l/m 0 min 2 min 9 W/m 19,3 km/h (3 Bft) 100,00 %
12.04.2023 07:28 7,7 C 6,7 C 3,3 C 95 % 1000,5 hPa 0,0 l/m 0 min 2 min 11 W/m 19,3 km/h (3 Bft) 100,00 %
12.04.2023 07:30 7,6 C 6,7 C 3,3 C 95 % 1000,4 hPa 0,0 l/m 0 min 2 min 12 W/m 22,5 km/h (4 Bft) 100,00 %
12.04.2023 07:32 7,7 C 6,7 C 3,3 C 95 % 1000,4 hPa 0,0 l/m 0 min 2 min 11 W/m 19,3 km/h (3 Bft) 100,00 %
12.04.2023 07:34 7,7 C 6,7 C 3,3 C 95 % 1000,4 hPa 0,0 l/m 0 min 2 min 11 W/m 22,5 km/h (4 Bft) 100,00 %
12.04.2023 07:36 7,7 C 6,7 C 3,3 C 95 % 1000,3 hPa 0,2 l/m 0 min 2 min 12 W/m 22,5 km/h (4 Bft) 97,87 %
12.04.2023 07:38 7,6 C 6,7 C 3,3 C 95 % 1000,3 hPa 0,0 l/m 0 min 2 min 11 W/m 19,3 km/h (3 Bft) 100,00 %
12.04.2023 07:40 7,6 C 6,7 C 3,3 C 95 % 1000,3 hPa 0,0 l/m 0 min 2 min 9 W/m 16,1 km/h (3 Bft) 56,52 %
12.04.2023 07:42 7,6 C 6,7 C 3,3 C 95 % 1000,2 hPa 0,0 l/m 0 min 2 min 11 W/m 19,3 km/h (3 Bft) 94,12 %
12.04.2023 07:44 7,6 C 6,7 C 3,3 C 95 % 1000,2 hPa 0,0 l/m 0 min 2 min 15 W/m 25,7 km/h (4 Bft) 100,00 %
12.04.2023 07:46 7,6 C 6,7 C 3,3 C 95 % 1000,2 hPa 0,2 l/m 0 min 2 min 20 W/m 19,3 km/h (3 Bft) 100,00 %
12.04.2023 07:48 7,6 C 6,7 C 3,3 C 95 % 1000,2 hPa 0,0 l/m 0 min 2 min 24 W/m 29,0 km/h (5 Bft) 97,87 %
12.04.2023 07:50 7,6 C 6,7 C 3,3 C 95 % 1000,2 hPa 0,0 l/m 0 min 2 min 21 W/m 16,1 km/h (3 Bft) 100,00 %
12.04.2023 07:52 7,6 C 6,7 C 3,3 C 95 % 1000,1 hPa 0,0 l/m 0 min 2 min 19 W/m 16,1 km/h (3 Bft) 97,87 %
12.04.2023 07:54 7,6 C 6,7 C 3,3 C 95 % 1000,1 hPa 0,0 l/m 0 min 2 min 17 W/m 19,3 km/h (3 Bft) 93,62 %
12.04.2023 07:56 7,6 C 6,7 C 3,3 C 95 % 1000,1 hPa 0,0 l/m 0 min 2 min 16 W/m 16,1 km/h (3 Bft) 95,74 %
12.04.2023 07:58 7,7 C 6,7 C 3,3 C 95 % 1000,1 hPa 0,2 l/m 0 min 2 min 17 W/m 16,1 km/h (3 Bft) 95,65 %
12.04.2023 08:00 7,6 C 6,7 C 3,3 C 95 % 1000,0 hPa 0,0 l/m 0 min 2 min 20 W/m 19,3 km/h (3 Bft) 93,62 %
12.04.2023 08:02 7,6 C 6,7 C 3,3 C 95 % 1000,0 hPa 0,0 l/m 0 min 2 min 23 W/m 16,1 km/h (3 Bft) 95,74 %
12.04.2023 08:04 7,7 C 6,7 C 3,3 C 95 % 1000,0 hPa 0,2 l/m 0 min 2 min 26 W/m 25,7 km/h (4 Bft) 97,87 %
12.04.2023 08:06 7,7 C 6,7 C 3,3 C 95 % 1000,0 hPa 0,0 l/m 0 min 2 min 25 W/m 19,3 km/h (3 Bft) 98,28 %
12.04.2023 08:08 7,7 C 6,7 C 3,3 C 95 % 1000,0 hPa 0,0 l/m 0 min 2 min 25 W/m 22,5 km/h (4 Bft) 97,22 %
12.04.2023 08:10 7,7 C 6,7 C 3,3 C 95 % 999,9 hPa 0,0 l/m 0 min 2 min 25 W/m 19,3 km/h (3 Bft) 97,87 %
12.04.2023 08:12 7,7 C 6,7 C 3,3 C 95 % 999,9 hPa 0,0 l/m 0 min 2 min 23 W/m 16,1 km/h (3 Bft) 95,92 %
12.04.2023 08:14 7,7 C 6,7 C 3,3 C 96 % 1000,0 hPa 0,2 l/m 0 min 2 min 25 W/m 25,7 km/h (4 Bft) 97,87 %
12.04.2023 08:16 7,7 C 6,7 C 3,3 C 96 % 1000,0 hPa 0,0 l/m 0 min 2 min 34 W/m 25,7 km/h (4 Bft) 97,87 %
12.04.2023 08:18 7,7 C 6,7 C 3,3 C 96 % 999,9 hPa 0,0 l/m 0 min 2 min 30 W/m 25,7 km/h (4 Bft) 97,87 %
12.04.2023 08:20 7,7 C 6,7 C 3,3 C 96 % 999,9 hPa 0,0 l/m 0 min 2 min 28 W/m 19,3 km/h (3 Bft) 95,74 %
12.04.2023 08:22 7,7 C 6,7 C 3,3 C 96 % 999,8 hPa 0,0 l/m 0 min 2 min 33 W/m 19,3 km/h (3 Bft) 97,87 %
12.04.2023 08:24 7,7 C 6,7 C 3,3 C 96 % 999,8 hPa 0,2 l/m 0 min 2 min 35 W/m 19,3 km/h (3 Bft) 100,00 %
12.04.2023 08:26 7,7 C 6,7 C 3,3 C 96 % 999,8 hPa 0,0 l/m 0 min 2 min 35 W/m 25,7 km/h (4 Bft) 100,00 %
12.04.2023 08:28 7,7 C 6,7 C 3,3 C 96 % 999,7 hPa 0,0 l/m 0 min 2 min 31 W/m 22,5 km/h (4 Bft) 95,74 %
12.04.2023 08:30 7,7 C 6,7 C 3,3 C 96 % 999,7 hPa 0,0 l/m 0 min 2 min 32 W/m 22,5 km/h (4 Bft) 100,00 %
12.04.2023 08:32 7,7 C 6,7 C 3,3 C 96 % 999,7 hPa 0,0 l/m 0 min 2 min 33 W/m 25,7 km/h (4 Bft) 100,00 %
12.04.2023 08:34 7,8 C 6,7 C 3,3 C 96 % 999,6 hPa 0,2 l/m 0 min 2 min 36 W/m 12,9 km/h (3 Bft) 100,00 %
12.04.2023 08:36 7,8 C 6,7 C 3,3 C 96 % 999,6 hPa 0,0 l/m 0 min 2 min 34 W/m 19,3 km/h (3 Bft) 100,00 %
12.04.2023 08:38 7,8 C 6,7 C 3,3 C 96 % 999,7 hPa 0,0 l/m 0 min 2 min 32 W/m 12,9 km/h (3 Bft) 100,00 %
12.04.2023 08:40 7,8 C 6,7 C 3,3 C 96 % 999,6 hPa 0,2 l/m 0 min 2 min 34 W/m 25,7 km/h (4 Bft) 97,87 %
12.04.2023 08:42 7,8 C 6,7 C 3,3 C 96 % 999,5 hPa 0,0 l/m 0 min 2 min 34 W/m 16,1 km/h (3 Bft) 97,87 %
12.04.2023 08:44 7,8 C 7,2 C 3,3 C 96 % 999,4 hPa 0,0 l/m 0 min 2 min 41 W/m 19,3 km/h (3 Bft) 100,00 %
12.04.2023 08:46 7,8 C 6,7 C 3,3 C 96 % 999,4 hPa 0,0 l/m 0 min 2 min 44 W/m 22,5 km/h (4 Bft) 100,00 %
12.04.2023 08:48 7,8 C 7,2 C 3,3 C 96 % 999,3 hPa 0,0 l/m 0 min 2 min 55 W/m 22,5 km/h (4 Bft) 97,87 %
12.04.2023 08:50 7,8 C 7,2 C 3,3 C 96 % 999,3 hPa 0,0 l/m 0 min 2 min 56 W/m 19,3 km/h (3 Bft) 95,65 %
12.04.2023 08:52 7,8 C 7,2 C 3,9 C 96 % 999,2 hPa 0,0 l/m 0 min 2 min 47 W/m 19,3 km/h (3 Bft) 95,74 %
12.04.2023 08:54 7,8 C 7,2 C 3,3 C 96 % 999,3 hPa 0,0 l/m 0 min 2 min 51 W/m 22,5 km/h (4 Bft) 97,87 %
12.04.2023 08:56 7,8 C 7,2 C 3,9 C 96 % 999,3 hPa 0,2 l/m 0 min 2 min 55 W/m 12,9 km/h (3 Bft) 93,62 %
12.04.2023 08:58 7,8 C 7,2 C 3,9 C 96 % 999,3 hPa 0,0 l/m 0 min 2 min 57 W/m 22,5 km/h (4 Bft) 95,74 %
12.04.2023 09:00 7,9 C 7,2 C 3,9 C 96 % 999,2 hPa 0,0 l/m 0 min 2 min 58 W/m 19,3 km/h (3 Bft) 93,62 %
12.04.2023 09:02 7,9 C 7,2 C 3,9 C 96 % 999,2 hPa 0,0 l/m 0 min 2 min 57 W/m 29,0 km/h (5 Bft) 93,62 %
12.04.2023 09:04 7,9 C 7,2 C 3,9 C 96 % 999,2 hPa 0,0 l/m 0 min 2 min 54 W/m 25,7 km/h (4 Bft) 95,65 %
12.04.2023 09:06 7,9 C 7,2 C 3,9 C 97 % 999,2 hPa 0,2 l/m 0 min 2 min 54 W/m 22,5 km/h (4 Bft) 95,74 %
12.04.2023 09:08 7,9 C 7,2 C 3,9 C 97 % 999,2 hPa 0,0 l/m 0 min 2 min 58 W/m 19,3 km/h (3 Bft) 93,62 %
12.04.2023 09:10 7,9 C 7,2 C 3,9 C 96 % 999,1 hPa 0,0 l/m 0 min 2 min 62 W/m 29,0 km/h (5 Bft) 93,62 %
12.04.2023 09:12 7,9 C 7,2 C 3,9 C 96 % 999,0 hPa 0,0 l/m 0 min 2 min 69 W/m 19,3 km/h (3 Bft) 97,87 %
12.04.2023 09:14 7,9 C 7,2 C 3,9 C 96 % 999,0 hPa 0,0 l/m 0 min 2 min 78 W/m 19,3 km/h (3 Bft) 97,87 %
12.04.2023 09:16 8,0 C 7,2 C 3,9 C 96 % 999,0 hPa 0,0 l/m 0 min 2 min 85 W/m 19,3 km/h (3 Bft) 95,65 %
12.04.2023 09:18 8,0 C 7,2 C 3,9 C 97 % 999,0 hPa 0,2 l/m 0 min 2 min 67 W/m 19,3 km/h (3 Bft) 95,74 %
12.04.2023 09:20 8,0 C 7,2 C 3,9 C 97 % 999,0 hPa 0,0 l/m 0 min 2 min 71 W/m 19,3 km/h (3 Bft) 95,74 %
12.04.2023 09:22 8,1 C 7,2 C 3,9 C 97 % 999,0 hPa 0,0 l/m 0 min 2 min 80 W/m 19,3 km/h (3 Bft) 95,74 %
12.04.2023 09:24 8,1 C 7,2 C 3,9 C 97 % 999,0 hPa 0,0 l/m 0 min 2 min 88 W/m 16,1 km/h (3 Bft) 93,62 %
12.04.2023 09:26 8,1 C 7,2 C 3,9 C 97 % 999,0 hPa 0,0 l/m 0 min 2 min 64 W/m 16,1 km/h (3 Bft) 93,62 %
12.04.2023 09:28 8,1 C 7,2 C 3,9 C 97 % 999,0 hPa 0,0 l/m 0 min 2 min 62 W/m 16,1 km/h (3 Bft) 93,62 %
12.04.2023 09:30 8,1 C 7,2 C 3,9 C 97 % 998,9 hPa 0,2 l/m 0 min 2 min 66 W/m 16,1 km/h (3 Bft) 93,48 %
12.04.2023 09:32 8,1 C 7,2 C 3,9 C 97 % 998,8 hPa 0,0 l/m 0 min 2 min 80 W/m 22,5 km/h (4 Bft) 95,74 %
12.04.2023 09:34 8,1 C 7,2 C 3,9 C 97 % 998,9 hPa 0,0 l/m 0 min 2 min 69 W/m 19,3 km/h (3 Bft) 95,74 %
12.04.2023 09:36 8,1 C 7,2 C 3,9 C 97 % 998,8 hPa 0,0 l/m 0 min 2 min 62 W/m 19,3 km/h (3 Bft) 96,00 %
12.04.2023 09:38 8,1 C 7,2 C 3,9 C 97 % 998,8 hPa 0,2 l/m 0 min 2 min 56 W/m 12,9 km/h (3 Bft) 95,74 %
12.04.2023 09:40 8,2 C 7,2 C 3,9 C 97 % 998,7 hPa 0,0 l/m 0 min 2 min 58 W/m 16,1 km/h (3 Bft) 94,29 %
12.04.2023 09:42 8,2 C 7,2 C 4,4 C 97 % 998,6 hPa 0,0 l/m 0 min 2 min 58 W/m 16,1 km/h (3 Bft) 97,83 %
12.04.2023 09:44 8,2 C 7,2 C 4,4 C 97 % 998,7 hPa 0,0 l/m 0 min 2 min 54 W/m 16,1 km/h (3 Bft) 97,87 %
12.04.2023 09:46 8,2 C 7,2 C 4,4 C 97 % 998,8 hPa 0,0 l/m 0 min 2 min 59 W/m 12,9 km/h (3 Bft) 100,00 %
12.04.2023 09:48 8,2 C 7,2 C 4,4 C 97 % 998,8 hPa 0,2 l/m 0 min 2 min 75 W/m 19,3 km/h (3 Bft) 97,87 %
12.04.2023 09:50 8,2 C 7,8 C 4,4 C 97 % 998,8 hPa 0,0 l/m 0 min 2 min 86 W/m 19,3 km/h (3 Bft) 97,87 %
12.04.2023 09:52 8,2 C 7,8 C 4,4 C 97 % 998,8 hPa 0,0 l/m 0 min 2 min 84 W/m 16,1 km/h (3 Bft) 95,74 %
12.04.2023 09:54 8,2 C 7,8 C 4,4 C 97 % 998,8 hPa 0,0 l/m 0 min 2 min 71 W/m 12,9 km/h (3 Bft) 97,87 %
12.04.2023 09:56 8,3 C 7,8 C 4,4 C 97 % 998,8 hPa 0,2 l/m 0 min 2 min 71 W/m 16,1 km/h (3 Bft) 97,83 %
12.04.2023 09:58 8,3 C 7,8 C 4,4 C 97 % 998,8 hPa 0,0 l/m 0 min 2 min 69 W/m 16,1 km/h (3 Bft) 97,87 %
12.04.2023 10:00 8,3 C 7,8 C 4,4 C 97 % 998,8 hPa 0,2 l/m 0 min 2 min 62 W/m 19,3 km/h (3 Bft) 97,87 %
12.04.2023 10:02 8,3 C 7,8 C 4,4 C 97 % 998,8 hPa 0,0 l/m 0 min 2 min 57 W/m 19,3 km/h (3 Bft) 97,87 %
12.04.2023 10:04 8,3 C 7,8 C 4,4 C 97 % 998,8 hPa 0,0 l/m 0 min 2 min 54 W/m 16,1 km/h (3 Bft) 97,87 %
12.04.2023 10:06 8,3 C 7,8 C 4,4 C 97 % 998,7 hPa 0,0 l/m 0 min 2 min 72 W/m 16,1 km/h (3 Bft) 98,28 %
12.04.2023 10:08 8,3 C 7,8 C 4,4 C 97 % 998,7 hPa 0,0 l/m 0 min 2 min 81 W/m 9,7 km/h (2 Bft) 94,44 %
12.04.2023 10:10 8,3 C 7,8 C 4,4 C 97 % 998,7 hPa 0,0 l/m 0 min 2 min 78 W/m 16,1 km/h (3 Bft) 95,65 %
12.04.2023 10:12 8,3 C 7,8 C 4,4 C 97 % 998,7 hPa 0,0 l/m 0 min 2 min 65 W/m 16,1 km/h (3 Bft) 97,87 %
12.04.2023 10:14 8,3 C 7,8 C 4,4 C 97 % 998,6 hPa 0,0 l/m 0 min 2 min 82 W/m 6,4 km/h (2 Bft) 97,87 %
12.04.2023 10:16 8,4 C 7,8 C 4,4 C 97 % 998,6 hPa 0,0 l/m 0 min 0 min 103 W/m 12,9 km/h (3 Bft) 97,87 %
12.04.2023 10:18 8,4 C 7,8 C 4,4 C 97 % 998,5 hPa 0,0 l/m 0 min 2 min 112 W/m 6,4 km/h (2 Bft) 97,87 %
12.04.2023 10:20 8,4 C 7,8 C 4,4 C 97 % 998,5 hPa 0,2 l/m 0 min 0 min 138 W/m 12,9 km/h (3 Bft) 97,87 %
12.04.2023 10:22 8,5 C 8,3 C 4,4 C 97 % 998,5 hPa 0,0 l/m 0 min 2 min 114 W/m 16,1 km/h (3 Bft) 100,00 %
12.04.2023 10:24 8,6 C 8,3 C 4,4 C 97 % 998,5 hPa 0,0 l/m 0 min 0 min 101 W/m 16,1 km/h (3 Bft) 100,00 %
12.04.2023 10:26 8,6 C 7,8 C 4,4 C 97 % 998,5 hPa 0,0 l/m 0 min 2 min 91 W/m 12,9 km/h (3 Bft) 100,00 %
12.04.2023 10:28 8,6 C 7,8 C 4,4 C 97 % 998,5 hPa 0,0 l/m 0 min 2 min 94 W/m 19,3 km/h (3 Bft) 100,00 %
12.04.2023 10:30 8,6 C 7,8 C 4,4 C 97 % 998,6 hPa 0,0 l/m 0 min 0 min 100 W/m 19,3 km/h (3 Bft) 100,00 %
12.04.2023 10:32 8,6 C 7,8 C 4,4 C 97 % 998,5 hPa 0,0 l/m 0 min 2 min 89 W/m 19,3 km/h (3 Bft) 100,00 %
12.04.2023 10:34 8,6 C 7,8 C 4,4 C 97 % 998,4 hPa 0,0 l/m 0 min 0 min 109 W/m 22,5 km/h (4 Bft) 97,87 %
12.04.2023 10:36 8,6 C 7,8 C 4,4 C 97 % 998,5 hPa 0,0 l/m 0 min 2 min 102 W/m 16,1 km/h (3 Bft) 100,00 %
12.04.2023 10:38 8,6 C 7,8 C 4,4 C 97 % 998,5 hPa 0,2 l/m 0 min 2 min 90 W/m 19,3 km/h (3 Bft) 100,00 %
12.04.2023 10:40 8,7 C 7,8 C 4,4 C 97 % 998,5 hPa 0,0 l/m 0 min 0 min 88 W/m 25,7 km/h (4 Bft) 95,74 %
12.04.2023 10:42 8,7 C 7,8 C 4,4 C 97 % 998,4 hPa 0,0 l/m 0 min 2 min 95 W/m 19,3 km/h (3 Bft) 100,00 %
12.04.2023 10:44 8,7 C 7,8 C 5,0 C 97 % 998,5 hPa 0,0 l/m 0 min 0 min 92 W/m 19,3 km/h (3 Bft) 100,00 %
12.04.2023 10:46 8,7 C 7,8 C 5,0 C 97 % 998,5 hPa 0,0 l/m 0 min 0 min 86 W/m 16,1 km/h (3 Bft) 100,00 %
12.04.2023 10:48 8,7 C 7,8 C 5,0 C 97 % 998,5 hPa 0,0 l/m 0 min 0 min 74 W/m 12,9 km/h (3 Bft) 100,00 %
12.04.2023 10:50 8,7 C 8,3 C 5,0 C 97 % 998,5 hPa 0,2 l/m 0 min 0 min 65 W/m 6,4 km/h (2 Bft) 100,00 %
12.04.2023 10:52 8,7 C 7,8 C 5,0 C 97 % 998,6 hPa 0,0 l/m 0 min 0 min 60 W/m 12,9 km/h (3 Bft) 100,00 %
12.04.2023 10:54 8,7 C 7,8 C 5,0 C 97 % 998,6 hPa 0,0 l/m 0 min 2 min 60 W/m 16,1 km/h (3 Bft) 100,00 %
12.04.2023 10:56 8,8 C 8,3 C 5,0 C 97 % 998,6 hPa 0,0 l/m 0 min 2 min 66 W/m 9,7 km/h (2 Bft) 97,87 %
12.04.2023 10:58 8,8 C 8,3 C 5,0 C 97 % 998,6 hPa 0,2 l/m 0 min 2 min 82 W/m 12,9 km/h (3 Bft) 100,00 %
12.04.2023 11:00 8,8 C 8,3 C 5,0 C 97 % 998,6 hPa 0,2 l/m 0 min 2 min 101 W/m 12,9 km/h (3 Bft) 100,00 %
12.04.2023 11:02 8,8 C 8,3 C 5,0 C 97 % 998,5 hPa 0,0 l/m 0 min 2 min 122 W/m 6,4 km/h (2 Bft) 97,87 %
12.04.2023 11:04 8,8 C 8,3 C 5,0 C 97 % 998,4 hPa 0,2 l/m 0 min 2 min 129 W/m 12,9 km/h (3 Bft) 100,00 %
12.04.2023 11:06 8,8 C 8,3 C 5,0 C 98 % 998,5 hPa 0,0 l/m 0 min 2 min 123 W/m 16,1 km/h (3 Bft) 96,55 %
12.04.2023 11:08 8,9 C 8,3 C 5,0 C 98 % 998,5 hPa 0,0 l/m 0 min 2 min 116 W/m 12,9 km/h (3 Bft) 100,00 %
12.04.2023 11:10 8,9 C 8,3 C 5,0 C 98 % 998,5 hPa 0,0 l/m 0 min 2 min 94 W/m 12,9 km/h (3 Bft) 100,00 %
12.04.2023 11:12 8,9 C 8,3 C 5,0 C 98 % 998,5 hPa 0,0 l/m 0 min 2 min 86 W/m 19,3 km/h (3 Bft) 100,00 %
12.04.2023 11:14 8,9 C 8,3 C 5,0 C 98 % 998,5 hPa 0,2 l/m 0 min 2 min 98 W/m 12,9 km/h (3 Bft) 100,00 %
12.04.2023 11:16 9,0 C 8,3 C 5,6 C 98 % 998,4 hPa 0,0 l/m 0 min 2 min 170 W/m 9,7 km/h (2 Bft) 97,87 %
12.04.2023 11:18 9,0 C 8,9 C 5,6 C 98 % 998,4 hPa 0,0 l/m 0 min 2 min 260 W/m 12,9 km/h (3 Bft) 97,87 %
12.04.2023 11:20 9,1 C 9,4 C 5,6 C 98 % 998,4 hPa 0,0 l/m 0 min 2 min 220 W/m 6,4 km/h (2 Bft) 100,00 %
12.04.2023 11:22 9,2 C 9,4 C 5,6 C 98 % 998,4 hPa 0,0 l/m 0 min 2 min 223 W/m 6,4 km/h (2 Bft) 97,87 %
12.04.2023 11:24 9,2 C 9,4 C 5,6 C 98 % 998,3 hPa 0,0 l/m 0 min 2 min 232 W/m 12,9 km/h (3 Bft) 100,00 %
12.04.2023 11:26 9,3 C 9,4 C 5,6 C 98 % 998,3 hPa 0,2 l/m 0 min 2 min 187 W/m 12,9 km/h (3 Bft) 97,87 %
12.04.2023 11:28 9,3 C 9,4 C 5,6 C 98 % 998,3 hPa 0,0 l/m 0 min 2 min 171 W/m 16,1 km/h (3 Bft) 100,00 %
12.04.2023 11:30 9,4 C 9,4 C 5,6 C 98 % 998,3 hPa 0,0 l/m 0 min 2 min 222 W/m 16,1 km/h (3 Bft) 100,00 %
12.04.2023 11:32 9,4 C 9,4 C 5,6 C 98 % 998,3 hPa 0,0 l/m 0 min 2 min 161 W/m 12,9 km/h (3 Bft) 100,00 %
12.04.2023 11:34 9,4 C 9,4 C 5,6 C 98 % 998,3 hPa 0,0 l/m 0 min 2 min 120 W/m 12,9 km/h (3 Bft) 100,00 %
12.04.2023 11:36 9,5 C 9,4 C 5,6 C 98 % 998,4 hPa 0,0 l/m 0 min 2 min 100 W/m 16,1 km/h (3 Bft) 97,87 %
12.04.2023 11:38 9,5 C 9,4 C 5,6 C 98 % 998,3 hPa 0,0 l/m 0 min 2 min 97 W/m 6,4 km/h (2 Bft) 97,87 %
12.04.2023 11:40 9,6 C 9,4 C 5,6 C 98 % 998,3 hPa 0,0 l/m 0 min 2 min 96 W/m 9,7 km/h (2 Bft) 95,74 %
12.04.2023 11:42 9,5 C 8,9 C 5,6 C 98 % 998,3 hPa 0,0 l/m 0 min 2 min 90 W/m 16,1 km/h (3 Bft) 95,74 %
12.04.2023 11:44 9,5 C 8,9 C 5,6 C 98 % 998,3 hPa 0,0 l/m 0 min 0 min 92 W/m 9,7 km/h (2 Bft) 97,87 %
12.04.2023 11:46 9,5 C 9,4 C 5,6 C 98 % 998,3 hPa 0,0 l/m 0 min 0 min 160 W/m 16,1 km/h (3 Bft) 93,62 %
12.04.2023 11:48 9,5 C 10,0 C 6,1 C 98 % 998,3 hPa 0,0 l/m 0 min 0 min 249 W/m 12,9 km/h (3 Bft) 91,30 %
12.04.2023 11:50 9,6 C 10,0 C 6,1 C 98 % 998,2 hPa 0,0 l/m 0 min 0 min 306 W/m 3,2 km/h (1 Bft) 93,62 %
12.04.2023 11:52 9,7 C 10,6 C 6,1 C 98 % 998,2 hPa 0,0 l/m 0 min 0 min 324 W/m 9,7 km/h (2 Bft) 91,49 %
12.04.2023 11:54 9,8 C 11,1 C 6,7 C 98 % 998,2 hPa 0,0 l/m 2 min 0 min 373 W/m 6,4 km/h (2 Bft) 93,62 %
12.04.2023 11:56 9,8 C 11,7 C 7,2 C 98 % 998,2 hPa 0,0 l/m 2 min 0 min 431 W/m 6,4 km/h (2 Bft) 93,62 %
12.04.2023 11:58 10,1 C 12,2 C 7,2 C 98 % 998,2 hPa 0,0 l/m 2 min 0 min 458 W/m 9,7 km/h (2 Bft) 91,49 %
12.04.2023 12:00 10,2 C 12,2 C 7,2 C 98 % 998,1 hPa 0,0 l/m 2 min 0 min 403 W/m 9,7 km/h (2 Bft) 93,48 %
12.04.2023 12:02 10,2 C 12,2 C 7,2 C 98 % 998,1 hPa 0,0 l/m 2 min 0 min 415 W/m 6,4 km/h (2 Bft) 91,49 %
12.04.2023 12:04 10,3 C 12,2 C 7,2 C 98 % 998,2 hPa 0,0 l/m 2 min 0 min 380 W/m 9,7 km/h (2 Bft) 93,62 %
12.04.2023 12:07 10,2 C 11,7 C 6,7 C 98 % 998,2 hPa 0,0 l/m 3 min 0 min 346 W/m 12,9 km/h (3 Bft) 94,44 %
12.04.2023 12:08 10,2 C 11,1 C 6,7 C 98 % 998,2 hPa 0,0 l/m 0 min 0 min 233 W/m 6,4 km/h (2 Bft) 91,67 %
12.04.2023 12:12 10,3 C 11,7 C 6,7 C 98 % 998,1 hPa 0,0 l/m 0 min 0 min 276 W/m 9,7 km/h (2 Bft) 92,00 %
12.04.2023 12:14 10,3 C 11,1 C 6,1 C 98 % 998,2 hPa 0,0 l/m 0 min 0 min 308 W/m 12,9 km/h (3 Bft) 93,48 %
12.04.2023 12:16 10,3 C 11,7 C 6,1 C 98 % 998,2 hPa 0,0 l/m 2 min 0 min 413 W/m 6,4 km/h (2 Bft) 93,62 %
12.04.2023 12:18 10,4 C 12,2 C 6,7 C 97 % 998,2 hPa 0,0 l/m 2 min 0 min 417 W/m 12,9 km/h (3 Bft) 93,62 %
12.04.2023 12:20 10,5 C 12,2 C 6,7 C 97 % 998,3 hPa 0,0 l/m 2 min 0 min 367 W/m 12,9 km/h (3 Bft) 89,36 %
12.04.2023 12:22 10,6 C 12,2 C 6,7 C 97 % 998,2 hPa 0,0 l/m 2 min 0 min 406 W/m 12,9 km/h (3 Bft) 87,23 %
12.04.2023 12:24 10,6 C 12,2 C 6,7 C 97 % 998,2 hPa 0,0 l/m 0 min 0 min 324 W/m 6,4 km/h (2 Bft) 95,74 %
12.04.2023 12:26 10,6 C 11,7 C 6,7 C 96 % 998,2 hPa 0,0 l/m 0 min 0 min 178 W/m 12,9 km/h (3 Bft) 97,83 %
12.04.2023 12:28 10,7 C 10,6 C 6,1 C 96 % 998,3 hPa 0,0 l/m 0 min 0 min 109 W/m 25,7 km/h (4 Bft) 100,00 %
12.04.2023 12:30 10,5 C 10,0 C 5,6 C 95 % 998,4 hPa 0,0 l/m 0 min 0 min 108 W/m 16,1 km/h (3 Bft) 100,00 %
12.04.2023 12:32 10,3 C 10,0 C 5,6 C 95 % 998,4 hPa 0,0 l/m 0 min 0 min 104 W/m 16,1 km/h (3 Bft) 100,00 %
12.04.2023 12:34 10,1 C 9,4 C 5,0 C 94 % 998,4 hPa 0,0 l/m 0 min 0 min 102 W/m 16,1 km/h (3 Bft) 100,00 %
12.04.2023 12:36 10,1 C 9,4 C 5,0 C 94 % 998,4 hPa 0,0 l/m 0 min 0 min 106 W/m 16,1 km/h (3 Bft) 97,87 %
12.04.2023 12:38 10,0 C 9,4 C 5,0 C 94 % 998,4 hPa 0,0 l/m 0 min 0 min 88 W/m 19,3 km/h (3 Bft) 100,00 %
12.04.2023 12:40 9,9 C 9,4 C 5,0 C 94 % 998,4 hPa 0,0 l/m 0 min 0 min 91 W/m 12,9 km/h (3 Bft) 100,00 %
12.04.2023 12:42 9,9 C 9,4 C 5,0 C 94 % 998,4 hPa 0,0 l/m 0 min 0 min 124 W/m 25,7 km/h (4 Bft) 100,00 %
12.04.2023 12:44 9,8 C 9,4 C 5,0 C 94 % 998,5 hPa 0,0 l/m 0 min 0 min 137 W/m 19,3 km/h (3 Bft) 97,87 %
12.04.2023 12:46 9,8 C 9,4 C 5,0 C 93 % 998,5 hPa 0,0 l/m 0 min 0 min 157 W/m 9,7 km/h (2 Bft) 100,00 %
12.04.2023 12:48 9,8 C 9,4 C 5,0 C 93 % 998,5 hPa 0,0 l/m 0 min 0 min 171 W/m 12,9 km/h (3 Bft) 100,00 %
12.04.2023 12:50 9,8 C 10,0 C 5,6 C 93 % 998,5 hPa 0,0 l/m 0 min 0 min 181 W/m 12,9 km/h (3 Bft) 97,87 %
12.04.2023 12:52 9,8 C 10,0 C 5,6 C 93 % 998,5 hPa 0,0 l/m 0 min 0 min 189 W/m 6,4 km/h (2 Bft) 100,00 %
12.04.2023 12:54 9,7 C 10,0 C 5,0 C 93 % 998,4 hPa 0,0 l/m 0 min 0 min 200 W/m 12,9 km/h (3 Bft) 100,00 %
12.04.2023 12:56 9,7 C 10,0 C 5,0 C 93 % 998,4 hPa 0,0 l/m 0 min 0 min 220 W/m 12,9 km/h (3 Bft) 97,83 %
12.04.2023 12:58 9,7 C 10,0 C 5,6 C 93 % 998,4 hPa 0,0 l/m 0 min 0 min 241 W/m 9,7 km/h (2 Bft) 100,00 %
12.04.2023 13:00 9,8 C 10,6 C 5,6 C 93 % 998,4 hPa 0,0 l/m 0 min 0 min 244 W/m 6,4 km/h (2 Bft) 97,87 %
12.04.2023 13:02 9,8 C 10,6 C 5,6 C 93 % 998,4 hPa 0,0 l/m 0 min 0 min 242 W/m 6,4 km/h (2 Bft) 97,87 %
12.04.2023 13:04 9,9 C 10,6 C 5,6 C 93 % 998,5 hPa 0,0 l/m 0 min 0 min 249 W/m 3,2 km/h (1 Bft) 100,00 %
12.04.2023 13:06 9,9 C 11,1 C 5,6 C 93 % 998,4 hPa 0,0 l/m 0 min 0 min 319 W/m 6,4 km/h (2 Bft) 98,28 %
12.04.2023 13:08 10,0 C 11,7 C 5,6 C 93 % 998,4 hPa 0,0 l/m 2 min 0 min 417 W/m 9,7 km/h (2 Bft) 100,00 %
12.04.2023 13:10 10,1 C 12,2 C 6,1 C 93 % 998,4 hPa 0,0 l/m 2 min 0 min 467 W/m 6,4 km/h (2 Bft) 100,00 %
12.04.2023 13:12 10,2 C 12,8 C 6,7 C 93 % 998,4 hPa 0,0 l/m 2 min 0 min 510 W/m 6,4 km/h (2 Bft) 100,00 %
12.04.2023 13:14 10,4 C 13,9 C 7,2 C 93 % 998,4 hPa 0,0 l/m 2 min 0 min 554 W/m 3,2 km/h (1 Bft) 100,00 %
12.04.2023 13:16 10,4 C 13,9 C 7,2 C 92 % 998,4 hPa 0,0 l/m 2 min 0 min 533 W/m 6,4 km/h (2 Bft) 100,00 %
12.04.2023 13:18 10,6 C 13,9 C 7,2 C 92 % 998,4 hPa 0,0 l/m 2 min 0 min 516 W/m 6,4 km/h (2 Bft) 100,00 %
12.04.2023 13:20 10,7 C 13,3 C 6,7 C 91 % 998,5 hPa 0,0 l/m 2 min 0 min 439 W/m 9,7 km/h (2 Bft) 100,00 %
12.04.2023 13:22 10,8 C 12,8 C 6,7 C 91 % 998,6 hPa 0,0 l/m 2 min 0 min 454 W/m 9,7 km/h (2 Bft) 97,83 %
12.04.2023 13:24 10,9 C 13,3 C 6,7 C 90 % 998,6 hPa 0,0 l/m 2 min 0 min 531 W/m 6,4 km/h (2 Bft) 100,00 %
12.04.2023 13:26 11,1 C 13,3 C 7,2 C 89 % 998,6 hPa 0,0 l/m 2 min 0 min 536 W/m 12,9 km/h (3 Bft) 100,00 %
12.04.2023 13:28 11,1 C 13,3 C 7,2 C 88 % 998,6 hPa 0,0 l/m 2 min 0 min 464 W/m 9,7 km/h (2 Bft) 100,00 %
12.04.2023 13:30 11,2 C 12,8 C 7,8 C 88 % 998,6 hPa 0,0 l/m 2 min 0 min 414 W/m 12,9 km/h (3 Bft) 100,00 %
12.04.2023 13:32 11,3 C 13,3 C 7,8 C 87 % 998,6 hPa 0,0 l/m 2 min 0 min 426 W/m 9,7 km/h (2 Bft) 100,00 %
12.04.2023 13:34 11,4 C 13,9 C 7,8 C 86 % 998,6 hPa 0,0 l/m 2 min 0 min 474 W/m 12,9 km/h (3 Bft) 97,87 %
12.04.2023 13:36 11,4 C 13,9 C 8,3 C 86 % 998,5 hPa 0,0 l/m 2 min 0 min 441 W/m 19,3 km/h (3 Bft) 100,00 %
12.04.2023 13:38 11,6 C 13,9 C 8,3 C 84 % 998,4 hPa 0,0 l/m 2 min 0 min 448 W/m 19,3 km/h (3 Bft) 97,87 %
12.04.2023 13:40 11,6 C 15,0 C 8,3 C 84 % 998,4 hPa 0,0 l/m 2 min 2 min 642 W/m 12,9 km/h (3 Bft) 100,00 %
12.04.2023 13:42 11,7 C 14,4 C 8,9 C 83 % 998,3 hPa 0,0 l/m 2 min 0 min 412 W/m 12,9 km/h (3 Bft) 97,87 %
12.04.2023 13:44 11,8 C 13,3 C 8,3 C 82 % 998,4 hPa 0,0 l/m 0 min 0 min 296 W/m 12,9 km/h (3 Bft) 100,00 %
12.04.2023 13:46 11,8 C 12,8 C 8,3 C 81 % 998,4 hPa 0,0 l/m 0 min 0 min 246 W/m 6,4 km/h (2 Bft) 97,87 %
12.04.2023 13:48 11,8 C 12,2 C 7,8 C 81 % 998,4 hPa 0,0 l/m 0 min 2 min 235 W/m 19,3 km/h (3 Bft) 100,00 %
12.04.2023 13:50 11,8 C 12,8 C 7,8 C 80 % 998,4 hPa 0,0 l/m 0 min 0 min 286 W/m 6,4 km/h (2 Bft) 100,00 %
12.04.2023 13:52 11,8 C 12,2 C 7,8 C 80 % 998,4 hPa 0,0 l/m 0 min 0 min 306 W/m 9,7 km/h (2 Bft) 97,83 %
12.04.2023 13:54 11,8 C 12,2 C 7,8 C 80 % 998,4 hPa 0,0 l/m 0 min 0 min 299 W/m 6,4 km/h (2 Bft) 97,87 %
12.04.2023 13:56 11,8 C 12,8 C 7,8 C 80 % 998,5 hPa 0,0 l/m 0 min 0 min 320 W/m 12,9 km/h (3 Bft) 97,87 %
12.04.2023 13:58 11,8 C 12,8 C 8,3 C 80 % 998,4 hPa 0,0 l/m 2 min 0 min 396 W/m 6,4 km/h (2 Bft) 95,74 %
12.04.2023 14:00 11,8 C 13,3 C 8,3 C 80 % 998,4 hPa 0,0 l/m 2 min 0 min 436 W/m 6,4 km/h (2 Bft) 95,74 %
12.04.2023 14:02 11,9 C 13,9 C 8,9 C 80 % 998,4 hPa 0,0 l/m 2 min 0 min 436 W/m 6,4 km/h (2 Bft) 97,87 %
12.04.2023 14:04 12,0 C 14,4 C 8,9 C 80 % 998,4 hPa 0,0 l/m 2 min 0 min 474 W/m 16,1 km/h (3 Bft) 97,87 %
12.04.2023 14:06 12,1 C 16,1 C 8,9 C 79 % 998,4 hPa 0,0 l/m 2 min 0 min 572 W/m 6,4 km/h (2 Bft) 98,28 %
12.04.2023 14:08 12,2 C 17,8 C 9,4 C 79 % 998,3 hPa 0,0 l/m 2 min 0 min 747 W/m 16,1 km/h (3 Bft) 97,14 %
12.04.2023 14:10 12,3 C 18,9 C 9,4 C 79 % 998,3 hPa 0,0 l/m 2 min 0 min 738 W/m 9,7 km/h (2 Bft) 97,87 %
12.04.2023 14:12 12,6 C 18,3 C 10,0 C 79 % 998,3 hPa 0,0 l/m 2 min 0 min 695 W/m 9,7 km/h (2 Bft) 97,87 %
12.04.2023 14:14 12,7 C 16,7 C 9,4 C 78 % 998,4 hPa 0,0 l/m 2 min 0 min 538 W/m 6,4 km/h (2 Bft) 97,87 %
12.04.2023 14:16 12,7 C 15,0 C 9,4 C 77 % 998,4 hPa 0,0 l/m 0 min 0 min 231 W/m 6,4 km/h (2 Bft) 97,87 %
12.04.2023 14:18 12,7 C 13,9 C 8,9 C 77 % 998,4 hPa 0,0 l/m 0 min 0 min 179 W/m 9,7 km/h (2 Bft) 97,83 %
12.04.2023 14:20 12,6 C 12,8 C 8,9 C 77 % 998,4 hPa 0,0 l/m 0 min 0 min 142 W/m 6,4 km/h (2 Bft) 97,87 %
12.04.2023 14:22 12,4 C 12,2 C 8,9 C 77 % 998,4 hPa 0,0 l/m 0 min 0 min 122 W/m 9,7 km/h (2 Bft) 91,49 %
12.04.2023 14:24 12,3 C 11,7 C 8,3 C 77 % 998,4 hPa 0,0 l/m 0 min 0 min 105 W/m 3,2 km/h (1 Bft) 95,74 %
12.04.2023 14:26 12,2 C 12,2 C 8,3 C 78 % 998,4 hPa 0,0 l/m 0 min 0 min 124 W/m 3,2 km/h (1 Bft) 95,74 %
12.04.2023 14:28 12,2 C 12,2 C 8,3 C 79 % 998,4 hPa 0,0 l/m 0 min 0 min 147 W/m 6,4 km/h (2 Bft) 95,74 %
12.04.2023 14:30 12,2 C 11,7 C 8,3 C 79 % 998,5 hPa 0,0 l/m 0 min 0 min 160 W/m 12,9 km/h (3 Bft) 95,74 %
12.04.2023 14:32 12,1 C 11,7 C 8,3 C 79 % 998,5 hPa 0,0 l/m 0 min 0 min 176 W/m 16,1 km/h (3 Bft) 95,65 %
12.04.2023 14:34 12,0 C 11,7 C 8,3 C 79 % 998,5 hPa 0,0 l/m 0 min 0 min 195 W/m 16,1 km/h (3 Bft) 97,87 %
12.04.2023 14:36 11,9 C 12,2 C 8,3 C 78 % 998,4 hPa 0,0 l/m 0 min 0 min 212 W/m 19,3 km/h (3 Bft) 97,87 %
12.04.2023 14:38 11,9 C 12,2 C 8,3 C 78 % 998,4 hPa 0,0 l/m 0 min 0 min 263 W/m 12,9 km/h (3 Bft) 95,74 %
12.04.2023 14:40 11,9 C 13,3 C 8,9 C 78 % 998,3 hPa 0,0 l/m 2 min 0 min 424 W/m 12,9 km/h (3 Bft) 93,62 %
12.04.2023 14:42 12,1 C 13,9 C 8,9 C 79 % 998,3 hPa 0,0 l/m 2 min 0 min 406 W/m 12,9 km/h (3 Bft) 95,74 %
12.04.2023 14:44 12,1 C 13,9 C 8,9 C 79 % 998,3 hPa 0,0 l/m 2 min 0 min 397 W/m 16,1 km/h (3 Bft) 97,87 %
12.04.2023 14:46 12,2 C 13,9 C 9,4 C 79 % 998,2 hPa 0,0 l/m 2 min 0 min 349 W/m 12,9 km/h (3 Bft) 95,65 %
12.04.2023 14:48 12,3 C 13,3 C 9,4 C 78 % 998,3 hPa 0,0 l/m 0 min 0 min 314 W/m 12,9 km/h (3 Bft) 97,87 %
12.04.2023 14:50 12,3 C 13,3 C 9,4 C 77 % 998,2 hPa 0,0 l/m 0 min 0 min 337 W/m 19,3 km/h (3 Bft) 95,74 %
12.04.2023 14:52 12,3 C 12,8 C 8,9 C 76 % 998,2 hPa 0,0 l/m 0 min 0 min 297 W/m 16,1 km/h (3 Bft) 97,87 %
12.04.2023 14:54 12,3 C 12,8 C 8,9 C 76 % 998,2 hPa 0,0 l/m 0 min 0 min 220 W/m 16,1 km/h (3 Bft) 97,87 %
12.04.2023 14:56 12,2 C 12,2 C 8,9 C 75 % 998,3 hPa 0,0 l/m 0 min 0 min 189 W/m 12,9 km/h (3 Bft) 97,87 %
12.04.2023 14:58 12,2 C 12,2 C 8,9 C 75 % 998,4 hPa 0,0 l/m 0 min 0 min 170 W/m 16,1 km/h (3 Bft) 97,87 %
12.04.2023 15:00 12,1 C 11,7 C 8,3 C 75 % 998,3 hPa 0,0 l/m 0 min 0 min 166 W/m 12,9 km/h (3 Bft) 95,65 %
12.04.2023 15:02 12,1 C 11,7 C 8,3 C 76 % 998,3 hPa 0,0 l/m 0 min 0 min 177 W/m 12,9 km/h (3 Bft) 95,74 %
12.04.2023 15:04 12,1 C 11,7 C 8,3 C 76 % 998,3 hPa 0,0 l/m 0 min 0 min 188 W/m 16,1 km/h (3 Bft) 96,36 %
12.04.2023 15:06 12,1 C 12,2 C 8,3 C 77 % 998,3 hPa 0,0 l/m 0 min 0 min 186 W/m 6,4 km/h (2 Bft) 94,87 %
12.04.2023 15:08 12,1 C 11,7 C 8,3 C 77 % 998,3 hPa 0,0 l/m 0 min 0 min 154 W/m 19,3 km/h (3 Bft) 97,87 %
12.04.2023 15:10 12,1 C 11,7 C 8,3 C 77 % 998,4 hPa 0,0 l/m 0 min 0 min 133 W/m 9,7 km/h (2 Bft) 97,87 %
12.04.2023 15:12 12,0 C 11,7 C 8,3 C 77 % 998,3 hPa 0,0 l/m 0 min 0 min 128 W/m 16,1 km/h (3 Bft) 46,15 %
12.04.2023 15:14 11,9 C 11,7 C 7,8 C 77 % 998,4 hPa 0,0 l/m 0 min 0 min 126 W/m 16,1 km/h (3 Bft) 97,87 %
12.04.2023 15:16 11,8 C 11,7 C 7,8 C 77 % 998,4 hPa 0,0 l/m 0 min 0 min 130 W/m 19,3 km/h (3 Bft) 95,74 %
12.04.2023 15:18 11,7 C 11,1 C 7,8 C 76 % 998,4 hPa 0,0 l/m 0 min 0 min 133 W/m 22,5 km/h (4 Bft) 97,87 %
12.04.2023 15:20 11,5 C 11,1 C 7,2 C 77 % 998,5 hPa 0,0 l/m 0 min 0 min 144 W/m 16,1 km/h (3 Bft) 97,87 %
12.04.2023 15:22 11,3 C 10,6 C 7,2 C 78 % 998,5 hPa 0,0 l/m 0 min 0 min 149 W/m 29,0 km/h (5 Bft) 97,87 %
12.04.2023 15:24 11,1 C 10,6 C 7,2 C 79 % 998,5 hPa 0,0 l/m 0 min 0 min 136 W/m 16,1 km/h (3 Bft) 97,87 %
12.04.2023 15:26 11,0 C 10,0 C 6,7 C 80 % 998,5 hPa 0,0 l/m 0 min 0 min 118 W/m 12,9 km/h (3 Bft) 97,83 %
12.04.2023 15:28 10,8 C 10,0 C 6,7 C 81 % 998,5 hPa 0,0 l/m 0 min 0 min 151 W/m 12,9 km/h (3 Bft) 97,87 %
12.04.2023 15:30 10,7 C 10,6 C 6,7 C 82 % 998,5 hPa 0,0 l/m 0 min 0 min 254 W/m 12,9 km/h (3 Bft) 95,74 %
12.04.2023 15:32 10,7 C 12,2 C 7,2 C 83 % 998,4 hPa 0,0 l/m 2 min 0 min 471 W/m 9,7 km/h (2 Bft) 97,87 %
12.04.2023 15:34 10,8 C 12,8 C 7,2 C 84 % 998,4 hPa 0,0 l/m 2 min 0 min 565 W/m 12,9 km/h (3 Bft) 97,87 %
12.04.2023 15:36 11,0 C 12,8 C 7,8 C 83 % 998,5 hPa 0,0 l/m 2 min 0 min 563 W/m 12,9 km/h (3 Bft) 95,74 %
12.04.2023 15:38 11,1 C 12,8 C 7,8 C 83 % 998,5 hPa 0,0 l/m 2 min 0 min 387 W/m 6,4 km/h (2 Bft) 95,74 %
12.04.2023 15:40 11,2 C 12,2 C 7,8 C 82 % 998,5 hPa 0,0 l/m 0 min 0 min 215 W/m 12,9 km/h (3 Bft) 97,83 %
12.04.2023 15:42 11,2 C 12,2 C 8,3 C 81 % 998,5 hPa 0,0 l/m 0 min 0 min 205 W/m 16,1 km/h (3 Bft) 96,49 %
12.04.2023 15:44 11,3 C 11,7 C 8,3 C 81 % 998,5 hPa 0,0 l/m 0 min 0 min 168 W/m 19,3 km/h (3 Bft) 95,74 %
12.04.2023 15:46 11,3 C 11,7 C 7,8 C 80 % 998,5 hPa 0,0 l/m 0 min 0 min 118 W/m 12,9 km/h (3 Bft) 97,87 %
12.04.2023 15:48 11,3 C 11,1 C 7,8 C 80 % 998,6 hPa 0,0 l/m 0 min 0 min 70 W/m 19,3 km/h (3 Bft) 95,74 %
12.04.2023 15:50 11,2 C 10,0 C 7,2 C 80 % 998,8 hPa 0,0 l/m 0 min 2 min 33 W/m 25,7 km/h (4 Bft) 97,83 %
12.04.2023 15:52 10,7 C 9,4 C 5,6 C 82 % 999,0 hPa 0,0 l/m 0 min 2 min 42 W/m 25,7 km/h (4 Bft) 97,87 %
12.04.2023 15:54 10,4 C 8,9 C 5,0 C 84 % 999,1 hPa 0,0 l/m 0 min 2 min 47 W/m 25,7 km/h (4 Bft) 95,74 %
12.04.2023 15:56 10,1 C 8,3 C 4,4 C 85 % 999,1 hPa 0,0 l/m 0 min 2 min 48 W/m 16,1 km/h (3 Bft) 95,74 %
12.04.2023 15:58 9,8 C 8,3 C 4,4 C 87 % 999,1 hPa 0,2 l/m 0 min 2 min 51 W/m 12,9 km/h (3 Bft) 97,87 %
12.04.2023 16:00 9,7 C 8,3 C 4,4 C 88 % 999,1 hPa 0,2 l/m 0 min 2 min 62 W/m 9,7 km/h (2 Bft) 97,14 %
12.04.2023 16:02 9,5 C 8,3 C 4,4 C 88 % 999,1 hPa 0,0 l/m 0 min 2 min 88 W/m 12,9 km/h (3 Bft) 100,00 %
12.04.2023 16:04 9,4 C 8,3 C 4,4 C 89 % 999,0 hPa 0,2 l/m 0 min 2 min 141 W/m 9,7 km/h (2 Bft) 97,92 %
12.04.2023 16:06 9,3 C 8,9 C 4,4 C 89 % 998,9 hPa 0,0 l/m 0 min 2 min 221 W/m 6,4 km/h (2 Bft) 95,65 %
12.04.2023 16:08 9,2 C 10,0 C 4,4 C 90 % 998,9 hPa 0,0 l/m 0 min 0 min 278 W/m 9,7 km/h (2 Bft) 97,87 %
12.04.2023 16:10 9,4 C 11,1 C 5,0 C 91 % 998,9 hPa 0,0 l/m 0 min 0 min 278 W/m 19,3 km/h (3 Bft) 97,87 %
12.04.2023 16:12 9,5 C 10,6 C 5,0 C 92 % 999,0 hPa 0,0 l/m 0 min 0 min 271 W/m 12,9 km/h (3 Bft) 95,74 %
12.04.2023 16:14 9,6 C 10,6 C 5,0 C 92 % 998,9 hPa 0,0 l/m 0 min 0 min 286 W/m 9,7 km/h (2 Bft) 97,87 %
12.04.2023 16:16 9,6 C 10,6 C 5,0 C 92 % 998,8 hPa 0,0 l/m 2 min 0 min 335 W/m 6,4 km/h (2 Bft) 95,74 %
12.04.2023 16:18 9,7 C 11,7 C 5,0 C 92 % 998,8 hPa 0,0 l/m 2 min 0 min 451 W/m 9,7 km/h (2 Bft) 95,74 %
12.04.2023 16:20 9,8 C 12,8 C 5,6 C 92 % 998,8 hPa 0,0 l/m 2 min 0 min 511 W/m 6,4 km/h (2 Bft) 97,83 %
12.04.2023 16:22 10,1 C 12,8 C 6,1 C 92 % 998,9 hPa 0,0 l/m 2 min 0 min 455 W/m 6,4 km/h (2 Bft) 97,87 %
12.04.2023 16:24 10,2 C 12,8 C 6,1 C 93 % 998,9 hPa 0,0 l/m 2 min 0 min 377 W/m 12,9 km/h (3 Bft) 91,49 %
12.04.2023 16:26 10,3 C 12,2 C 6,1 C 92 % 998,8 hPa 0,0 l/m 2 min 0 min 440 W/m 16,1 km/h (3 Bft) 97,87 %
12.04.2023 16:28 10,4 C 12,2 C 6,1 C 92 % 998,9 hPa 0,0 l/m 2 min 0 min 294 W/m 9,7 km/h (2 Bft) 97,87 %
12.04.2023 16:30 10,6 C 12,8 C 6,1 C 92 % 998,8 hPa 0,0 l/m 2 min 0 min 376 W/m 6,4 km/h (2 Bft) 97,87 %
12.04.2023 16:32 10,7 C 12,8 C 6,1 C 92 % 998,8 hPa 0,0 l/m 2 min 0 min 434 W/m 9,7 km/h (2 Bft) 97,87 %
12.04.2023 16:34 10,8 C 13,3 C 6,1 C 92 % 998,7 hPa 0,0 l/m 2 min 0 min 306 W/m 9,7 km/h (2 Bft) 95,65 %
12.04.2023 16:36 10,8 C 12,2 C 6,1 C 91 % 998,7 hPa 0,0 l/m 2 min 0 min 300 W/m 6,4 km/h (2 Bft) 95,74 %
12.04.2023 16:38 10,8 C 11,7 C 6,1 C 91 % 998,8 hPa 0,0 l/m 0 min 0 min 130 W/m 9,7 km/h (2 Bft) 97,87 %
12.04.2023 16:40 10,8 C 11,1 C 6,1 C 90 % 998,8 hPa 0,0 l/m 0 min 0 min 104 W/m 9,7 km/h (2 Bft) 100,00 %
12.04.2023 16:42 10,8 C 10,6 C 5,6 C 90 % 998,8 hPa 0,0 l/m 0 min 0 min 65 W/m 9,7 km/h (2 Bft) 97,87 %
12.04.2023 16:44 10,7 C 10,0 C 5,6 C 90 % 998,9 hPa 0,0 l/m 0 min 0 min 34 W/m 19,3 km/h (3 Bft) 100,00 %
12.04.2023 16:46 10,6 C 10,0 C 5,6 C 89 % 998,9 hPa 0,0 l/m 0 min 0 min 23 W/m 16,1 km/h (3 Bft) 97,83 %
12.04.2023 16:48 10,4 C 9,4 C 5,0 C 89 % 999,0 hPa 0,0 l/m 0 min 0 min 17 W/m 16,1 km/h (3 Bft) 100,00 %
12.04.2023 16:50 10,3 C 9,4 C 5,0 C 89 % 999,2 hPa 0,0 l/m 0 min 2 min 11 W/m 25,7 km/h (4 Bft) 100,00 %
12.04.2023 16:52 9,6 C 7,2 C 3,3 C 87 % 999,4 hPa 0,8 l/m 0 min 2 min 22 W/m 38,6 km/h (5 Bft) 100,00 %
12.04.2023 16:54 8,7 C 6,1 C 2,8 C 87 % 999,5 hPa 0,6 l/m 0 min 2 min 48 W/m 22,5 km/h (4 Bft) 97,87 %
12.04.2023 16:56 8,1 C 6,1 C 2,8 C 88 % 999,6 hPa 0,0 l/m 0 min 2 min 86 W/m 22,5 km/h (4 Bft) 100,00 %
12.04.2023 16:58 7,9 C 6,1 C 2,8 C 89 % 999,5 hPa 0,2 l/m 0 min 2 min 123 W/m 16,1 km/h (3 Bft) 100,00 %
12.04.2023 17:00 7,8 C 7,2 C 3,3 C 90 % 999,5 hPa 0,0 l/m 0 min 2 min 222 W/m 19,3 km/h (3 Bft) 100,00 %
12.04.2023 17:02 7,7 C 7,8 C 3,3 C 91 % 999,5 hPa 0,0 l/m 2 min 0 min 330 W/m 16,1 km/h (3 Bft) 95,74 %
12.04.2023 17:04 7,8 C 7,8 C 3,3 C 92 % 999,4 hPa 0,0 l/m 2 min 0 min 294 W/m 12,9 km/h (3 Bft) 100,00 %
12.04.2023 17:06 7,9 C 8,3 C 3,3 C 92 % 999,4 hPa 0,0 l/m 2 min 0 min 259 W/m 12,9 km/h (3 Bft) 97,87 %
12.04.2023 17:08 7,9 C 9,4 C 3,9 C 93 % 999,2 hPa 0,0 l/m 0 min 0 min 183 W/m 22,5 km/h (4 Bft) 95,74 %
12.04.2023 17:10 8,0 C 9,4 C 3,9 C 93 % 999,3 hPa 0,0 l/m 0 min 0 min 183 W/m 19,3 km/h (3 Bft) 93,62 %
12.04.2023 17:12 8,1 C 10,0 C 3,9 C 93 % 999,2 hPa 0,0 l/m 0 min 0 min 196 W/m 12,9 km/h (3 Bft) 95,74 %
12.04.2023 17:14 8,1 C 10,0 C 4,4 C 93 % 999,1 hPa 0,0 l/m 2 min 0 min 357 W/m 12,9 km/h (3 Bft) 95,65 %
12.04.2023 17:16 8,2 C 11,1 C 4,4 C 93 % 999,2 hPa 0,0 l/m 2 min 0 min 523 W/m 19,3 km/h (3 Bft) 97,87 %
12.04.2023 17:18 8,3 C 12,2 C 4,4 C 93 % 999,2 hPa 0,0 l/m 2 min 0 min 597 W/m 12,9 km/h (3 Bft) 95,74 %
12.04.2023 17:20 8,3 C 11,7 C 4,4 C 93 % 999,2 hPa 0,0 l/m 2 min 0 min 499 W/m 12,9 km/h (3 Bft) 97,87 %
12.04.2023 17:22 8,5 C 12,2 C 5,0 C 94 % 999,3 hPa 0,0 l/m 2 min 0 min 399 W/m 16,1 km/h (3 Bft) 95,74 %
12.04.2023 17:24 8,6 C 11,7 C 4,4 C 93 % 999,3 hPa 0,0 l/m 2 min 0 min 441 W/m 16,1 km/h (3 Bft) 97,87 %
12.04.2023 17:26 8,6 C 12,2 C 4,4 C 93 % 999,3 hPa 0,0 l/m 2 min 0 min 422 W/m 19,3 km/h (3 Bft) 97,87 %
12.04.2023 17:28 8,8 C 12,8 C 4,4 C 93 % 999,4 hPa 0,0 l/m 2 min 0 min 506 W/m 9,7 km/h (2 Bft) 95,65 %
12.04.2023 17:30 8,8 C 12,2 C 4,4 C 93 % 999,3 hPa 0,0 l/m 2 min 0 min 465 W/m 16,1 km/h (3 Bft) 97,87 %
12.04.2023 17:32 8,8 C 12,8 C 5,0 C 92 % 999,4 hPa 0,0 l/m 2 min 0 min 448 W/m 16,1 km/h (3 Bft) 91,49 %
12.04.2023 17:34 8,9 C 12,2 C 4,4 C 92 % 999,4 hPa 0,0 l/m 2 min 0 min 441 W/m 16,1 km/h (3 Bft) 97,87 %
12.04.2023 17:36 9,0 C 12,8 C 4,4 C 91 % 999,5 hPa 0,0 l/m 2 min 0 min 439 W/m 6,4 km/h (2 Bft) 97,87 %
12.04.2023 17:38 9,2 C 13,3 C 5,0 C 91 % 999,4 hPa 0,0 l/m 2 min 0 min 445 W/m 9,7 km/h (2 Bft) 97,87 %
12.04.2023 17:40 9,3 C 12,8 C 4,4 C 91 % 999,5 hPa 0,0 l/m 2 min 0 min 441 W/m 9,7 km/h (2 Bft) 97,87 %
12.04.2023 17:42 9,4 C 13,3 C 5,0 C 90 % 999,5 hPa 0,0 l/m 2 min 0 min 415 W/m 6,4 km/h (2 Bft) 97,14 %
12.04.2023 17:44 9,4 C 12,8 C 4,4 C 89 % 999,5 hPa 0,0 l/m 2 min 0 min 363 W/m 6,4 km/h (2 Bft) 98,28 %
12.04.2023 17:46 9,6 C 12,8 C 5,0 C 89 % 999,6 hPa 0,0 l/m 2 min 0 min 286 W/m 3,2 km/h (1 Bft) 94,29 %
12.04.2023 17:48 9,6 C 11,1 C 4,4 C 89 % 999,7 hPa 0,0 l/m 0 min 0 min 170 W/m 9,7 km/h (2 Bft) 98,28 %
12.04.2023 17:50 9,5 C 10,0 C 4,4 C 88 % 999,7 hPa 0,0 l/m 0 min 0 min 114 W/m 16,1 km/h (3 Bft) 95,74 %
12.04.2023 17:52 9,4 C 10,0 C 4,4 C 87 % 999,6 hPa 0,0 l/m 0 min 0 min 105 W/m 6,4 km/h (2 Bft) 97,87 %
12.04.2023 17:54 9,4 C 9,4 C 4,4 C 87 % 999,7 hPa 0,0 l/m 0 min 0 min 114 W/m 6,4 km/h (2 Bft) 95,74 %
12.04.2023 17:56 9,3 C 9,4 C 4,4 C 87 % 999,7 hPa 0,0 l/m 0 min 0 min 127 W/m 6,4 km/h (2 Bft) 97,83 %
12.04.2023 17:58 9,3 C 8,9 C 3,9 C 87 % 999,7 hPa 0,0 l/m 0 min 0 min 126 W/m 6,4 km/h (2 Bft) 97,87 %
12.04.2023 18:00 9,2 C 8,9 C 3,9 C 87 % 999,6 hPa 0,0 l/m 0 min 0 min 107 W/m 6,4 km/h (2 Bft) 97,87 %
12.04.2023 18:02 9,2 C 8,9 C 3,9 C 87 % 999,6 hPa 0,0 l/m 0 min 0 min 93 W/m 3,2 km/h (1 Bft) 100,00 %
12.04.2023 18:04 9,2 C 8,9 C 3,9 C 87 % 999,6 hPa 0,0 l/m 0 min 0 min 82 W/m 6,4 km/h (2 Bft) 97,87 %
12.04.2023 18:07 9,2 C 8,9 C 4,4 C 87 % 999,7 hPa 0,0 l/m 0 min 0 min 70 W/m 6,4 km/h (2 Bft) 98,59 %
12.04.2023 18:08 9,2 C 8,9 C 3,9 C 87 % 999,7 hPa 0,0 l/m 0 min 0 min 60 W/m 6,4 km/h (2 Bft) 100,00 %
12.04.2023 18:12 9,2 C 8,9 C 4,4 C 87 % 999,7 hPa 0,0 l/m 0 min 0 min 57 W/m 6,4 km/h (2 Bft) 95,74 %
12.04.2023 18:14 9,1 C 8,9 C 3,9 C 87 % 999,7 hPa 0,0 l/m 0 min 0 min 66 W/m 6,4 km/h (2 Bft) 95,74 %
12.04.2023 18:16 9,1 C 8,9 C 3,9 C 87 % 999,7 hPa 0,0 l/m 0 min 0 min 81 W/m 6,4 km/h (2 Bft) 93,62 %
12.04.2023 18:18 9,2 C 8,9 C 4,4 C 88 % 999,8 hPa 0,0 l/m 0 min 0 min 106 W/m 9,7 km/h (2 Bft) 95,74 %
12.04.2023 18:20 9,2 C 8,9 C 4,4 C 88 % 999,8 hPa 0,0 l/m 0 min 0 min 126 W/m 12,9 km/h (3 Bft) 93,62 %
12.04.2023 18:22 9,2 C 8,9 C 4,4 C 88 % 999,9 hPa 0,0 l/m 0 min 0 min 107 W/m 19,3 km/h (3 Bft) 93,62 %
12.04.2023 18:24 9,2 C 8,9 C 3,9 C 88 % 1000,0 hPa 0,0 l/m 0 min 0 min 83 W/m 25,7 km/h (4 Bft) 95,74 %
12.04.2023 18:26 9,1 C 8,3 C 3,9 C 87 % 1000,0 hPa 0,0 l/m 0 min 0 min 61 W/m 25,7 km/h (4 Bft) 95,65 %
12.04.2023 18:28 8,9 C 8,3 C 3,9 C 87 % 1000,0 hPa 0,0 l/m 0 min 0 min 59 W/m 29,0 km/h (5 Bft) 91,49 %
12.04.2023 18:30 8,8 C 8,3 C 3,9 C 86 % 1000,0 hPa 0,0 l/m 0 min 0 min 68 W/m 19,3 km/h (3 Bft) 95,74 %
12.04.2023 18:32 8,6 C 8,9 C 3,9 C 86 % 1000,0 hPa 0,0 l/m 0 min 0 min 138 W/m 22,5 km/h (4 Bft) 95,74 %
12.04.2023 18:34 8,5 C 9,4 C 4,4 C 87 % 999,9 hPa 0,0 l/m 2 min 0 min 189 W/m 16,1 km/h (3 Bft) 95,74 %
12.04.2023 18:36 8,5 C 10,0 C 4,4 C 87 % 999,5 hPa 0,0 l/m 2 min 2 min 197 W/m 9,7 km/h (2 Bft) 95,74 %
12.04.2023 18:38 8,4 C 10,6 C 4,4 C 87 % 999,5 hPa 0,0 l/m 2 min 0 min 218 W/m 9,7 km/h (2 Bft) 95,74 %
12.04.2023 18:40 8,5 C 11,7 C 4,4 C 87 % 999,5 hPa 0,0 l/m 2 min 0 min 132 W/m 6,4 km/h (2 Bft) 95,65 %
12.04.2023 18:42 8,6 C 11,1 C 5,0 C 88 % 999,5 hPa 0,0 l/m 2 min 0 min 144 W/m 6,4 km/h (2 Bft) 95,74 %
12.04.2023 18:44 8,7 C 10,6 C 5,0 C 88 % 999,5 hPa 0,0 l/m 0 min 0 min 89 W/m 3,2 km/h (1 Bft) 95,74 %
12.04.2023 18:46 8,7 C 10,0 C 5,0 C 88 % 999,5 hPa 0,0 l/m 0 min 0 min 69 W/m 6,4 km/h (2 Bft) 95,74 %
12.04.2023 18:48 8,7 C 9,4 C 4,4 C 87 % 999,5 hPa 0,0 l/m 0 min 0 min 56 W/m 3,2 km/h (1 Bft) 97,87 %
12.04.2023 18:50 8,7 C 8,9 C 4,4 C 86 % 999,5 hPa 0,0 l/m 0 min 0 min 46 W/m 3,2 km/h (1 Bft) 97,87 %
12.04.2023 18:52 8,7 C 8,3 C 4,4 C 86 % 999,5 hPa 0,0 l/m 0 min 0 min 42 W/m 6,4 km/h (2 Bft) 97,83 %
12.04.2023 18:54 8,6 C 8,3 C 4,4 C 86 % 999,5 hPa 0,0 l/m 0 min 0 min 40 W/m 3,2 km/h (1 Bft) 100,00 %
12.04.2023 18:56 8,7 C 8,9 C 4,4 C 86 % 999,5 hPa 0,0 l/m 0 min 0 min 43 W/m 3,2 km/h (1 Bft) 100,00 %
12.04.2023 18:58 8,7 C 8,9 C 4,4 C 86 % 999,5 hPa 0,0 l/m 0 min 0 min 47 W/m 3,2 km/h (1 Bft) 100,00 %
12.04.2023 19:00 8,7 C 8,9 C 4,4 C 86 % 999,7 hPa 0,0 l/m 0 min 0 min 47 W/m 3,2 km/h (1 Bft) 100,00 %
12.04.2023 19:02 8,7 C 8,9 C 4,4 C 86 % 999,7 hPa 0,0 l/m 0 min 0 min 43 W/m 3,2 km/h (1 Bft) 100,00 %
12.04.2023 19:04 8,7 C 8,9 C 4,4 C 86 % 999,7 hPa 0,0 l/m 0 min 0 min 42 W/m 0,0 km/h (0 Bft) 100,00 %
12.04.2023 19:06 8,7 C 8,9 C 4,4 C 86 % 999,7 hPa 0,0 l/m 0 min 0 min 44 W/m 3,2 km/h (1 Bft) 100,00 %
12.04.2023 19:08 8,7 C 8,9 C 4,4 C 85 % 999,6 hPa 0,0 l/m 0 min 0 min 46 W/m 3,2 km/h (1 Bft) 97,14 %
12.04.2023 19:10 8,7 C 8,3 C 4,4 C 85 % 999,6 hPa 0,0 l/m 0 min 0 min 43 W/m 6,4 km/h (2 Bft) 100,00 %
12.04.2023 19:12 8,7 C 8,3 C 4,4 C 85 % 999,6 hPa 0,0 l/m 0 min 0 min 40 W/m 6,4 km/h (2 Bft) 100,00 %
12.04.2023 19:14 8,7 C 8,3 C 4,4 C 86 % 999,6 hPa 0,0 l/m 0 min 0 min 36 W/m 6,4 km/h (2 Bft) 97,87 %
12.04.2023 19:16 8,7 C 8,3 C 4,4 C 86 % 999,6 hPa 0,0 l/m 0 min 0 min 32 W/m 6,4 km/h (2 Bft) 100,00 %
12.04.2023 19:18 8,7 C 8,3 C 4,4 C 86 % 999,5 hPa 0,0 l/m 0 min 0 min 32 W/m 6,4 km/h (2 Bft) 100,00 %
12.04.2023 19:20 8,7 C 8,3 C 4,4 C 86 % 999,5 hPa 0,0 l/m 0 min 0 min 30 W/m 3,2 km/h (1 Bft) 100,00 %
12.04.2023 19:22 8,7 C 8,3 C 4,4 C 86 % 999,5 hPa 0,0 l/m 0 min 0 min 30 W/m 3,2 km/h (1 Bft) 100,00 %
12.04.2023 19:24 8,7 C 8,3 C 4,4 C 86 % 999,5 hPa 0,0 l/m 0 min 0 min 28 W/m 6,4 km/h (2 Bft) 100,00 %
12.04.2023 19:26 8,7 C 8,3 C 4,4 C 86 % 999,4 hPa 0,0 l/m 0 min 0 min 28 W/m 6,4 km/h (2 Bft) 100,00 %
12.04.2023 19:28 8,7 C 7,8 C 4,4 C 86 % 999,4 hPa 0,0 l/m 0 min 0 min 28 W/m 6,4 km/h (2 Bft) 100,00 %
12.04.2023 19:30 8,6 C 7,8 C 4,4 C 86 % 999,5 hPa 0,0 l/m 0 min 0 min 26 W/m 9,7 km/h (2 Bft) 97,87 %
12.04.2023 19:32 8,6 C 7,8 C 4,4 C 86 % 999,5 hPa 0,0 l/m 0 min 0 min 24 W/m 6,4 km/h (2 Bft) 100,00 %
12.04.2023 19:34 8,6 C 7,8 C 4,4 C 86 % 999,4 hPa 0,0 l/m 0 min 0 min 21 W/m 6,4 km/h (2 Bft) 100,00 %
12.04.2023 19:36 8,6 C 7,8 C 4,4 C 86 % 999,5 hPa 0,0 l/m 0 min 0 min 19 W/m 6,4 km/h (2 Bft) 100,00 %
12.04.2023 19:38 8,6 C 7,8 C 4,4 C 87 % 999,5 hPa 0,0 l/m 0 min 0 min 19 W/m 6,4 km/h (2 Bft) 100,00 %
12.04.2023 19:40 8,6 C 7,8 C 4,4 C 87 % 999,5 hPa 0,0 l/m 0 min 0 min 19 W/m 6,4 km/h (2 Bft) 100,00 %
12.04.2023 19:42 8,6 C 7,8 C 4,4 C 87 % 999,4 hPa 0,0 l/m 0 min 0 min 19 W/m 3,2 km/h (1 Bft) 100,00 %
12.04.2023 19:44 8,5 C 7,8 C 4,4 C 87 % 999,5 hPa 0,0 l/m 0 min 0 min 19 W/m 3,2 km/h (1 Bft) 97,87 %
12.04.2023 19:46 8,5 C 7,8 C 4,4 C 87 % 999,4 hPa 0,0 l/m 0 min 0 min 21 W/m 6,4 km/h (2 Bft) 100,00 %
12.04.2023 19:48 8,5 C 7,2 C 4,4 C 87 % 999,4 hPa 0,0 l/m 0 min 0 min 23 W/m 6,4 km/h (2 Bft) 100,00 %
12.04.2023 19:50 8,4 C 7,2 C 4,4 C 87 % 999,4 hPa 0,0 l/m 0 min 0 min 23 W/m 6,4 km/h (2 Bft) 100,00 %
12.04.2023 19:52 8,4 C 7,2 C 4,4 C 87 % 999,4 hPa 0,0 l/m 0 min 0 min 25 W/m 6,4 km/h (2 Bft) 97,87 %
12.04.2023 19:54 8,4 C 7,2 C 4,4 C 88 % 999,4 hPa 0,0 l/m 0 min 0 min 26 W/m 3,2 km/h (1 Bft) 100,00 %
12.04.2023 19:56 8,4 C 7,2 C 4,4 C 88 % 999,4 hPa 0,0 l/m 0 min 0 min 28 W/m 6,4 km/h (2 Bft) 100,00 %
12.04.2023 19:58 8,4 C 7,2 C 4,4 C 88 % 999,4 hPa 0,0 l/m 0 min 0 min 26 W/m 3,2 km/h (1 Bft) 100,00 %
12.04.2023 20:00 8,4 C 7,2 C 4,4 C 88 % 999,4 hPa 0,0 l/m 0 min 0 min 22 W/m 3,2 km/h (1 Bft) 97,87 %
12.04.2023 20:02 8,3 C 7,2 C 4,4 C 88 % 999,5 hPa 0,0 l/m 0 min 0 min 18 W/m 6,4 km/h (2 Bft) 100,00 %
12.04.2023 20:04 8,3 C 7,2 C 4,4 C 88 % 999,4 hPa 0,0 l/m 0 min 0 min 15 W/m 12,9 km/h (3 Bft) 95,74 %
12.04.2023 20:06 8,3 C 7,2 C 4,4 C 88 % 999,4 hPa 0,0 l/m 0 min 0 min 13 W/m 6,4 km/h (2 Bft) 94,92 %
12.04.2023 20:10 8,3 C 7,2 C 3,9 C 88 % 999,5 hPa 0,0 l/m 0 min 0 min 11 W/m 12,9 km/h (3 Bft) 97,37 %
12.04.2023 20:16 8,2 C 7,2 C 3,9 C 89 % 999,5 hPa 0,0 l/m 0 min 0 min 7 W/m 6,4 km/h (2 Bft) 100,00 %
12.04.2023 20:18 8,2 C 7,2 C 3,9 C 89 % 999,5 hPa 0,0 l/m 0 min 0 min 5 W/m 3,2 km/h (1 Bft) 97,87 %
12.04.2023 20:20 8,2 C 7,2 C 3,9 C 89 % 999,5 hPa 0,0 l/m 0 min 0 min 0 W/m 3,2 km/h (1 Bft) 95,74 %
12.04.2023 20:25 8,1 C 7,2 C 3,9 C 89 % 999,5 hPa 0,0 l/m 0 min 0 min 0 W/m 6,4 km/h (2 Bft) 98,08 %
12.04.2023 20:26 8,1 C 7,2 C 3,9 C 89 % 999,5 hPa 0,0 l/m 0 min 0 min 0 W/m 6,4 km/h (2 Bft) 91,30 %
12.04.2023 20:28 8,1 C 7,2 C 3,9 C 89 % 999,6 hPa 0,0 l/m 0 min 0 min 0 W/m 6,4 km/h (2 Bft) 93,62 %
12.04.2023 20:30 8,1 C 7,2 C 4,4 C 89 % 999,6 hPa 0,0 l/m 0 min 0 min 0 W/m 6,4 km/h (2 Bft) 95,61 %
12.04.2023 20:36 8,1 C 7,2 C 4,4 C 90 % 999,6 hPa 0,0 l/m 0 min 0 min 0 W/m 6,4 km/h (2 Bft) 100,00 %
12.04.2023 20:38 8,1 C 7,2 C 4,4 C 90 % 999,6 hPa 0,0 l/m 0 min 0 min 0 W/m 12,9 km/h (3 Bft) 95,74 %
12.04.2023 20:40 8,1 C 7,2 C 4,4 C 90 % 999,6 hPa 0,0 l/m 0 min 0 min 0 W/m 6,4 km/h (2 Bft) 91,49 %
12.04.2023 20:42 8,1 C 7,2 C 4,4 C 90 % 999,5 hPa 0,0 l/m 0 min 0 min 0 W/m 6,4 km/h (2 Bft) 97,14 %
12.04.2023 20:44 8,1 C 7,2 C 4,4 C 90 % 999,6 hPa 0,0 l/m 0 min 0 min 0 W/m 6,4 km/h (2 Bft) 93,33 %
12.04.2023 20:46 8,1 C 7,2 C 4,4 C 90 % 999,7 hPa 0,0 l/m 0 min 0 min 0 W/m 6,4 km/h (2 Bft) 97,87 %
12.04.2023 20:48 8,1 C 7,2 C 4,4 C 90 % 999,7 hPa 0,0 l/m 0 min 0 min 0 W/m 3,2 km/h (1 Bft) 93,48 %
12.04.2023 20:50 8,1 C 7,2 C 4,4 C 90 % 999,6 hPa 0,0 l/m 0 min 0 min 0 W/m 6,4 km/h (2 Bft) 95,74 %
12.04.2023 20:52 8,1 C 7,2 C 4,4 C 90 % 999,6 hPa 0,0 l/m 0 min 0 min 0 W/m 6,4 km/h (2 Bft) 97,87 %
12.04.2023 20:54 8,1 C 7,2 C 4,4 C 90 % 999,6 hPa 0,0 l/m 0 min 0 min 0 W/m 6,4 km/h (2 Bft) 93,62 %
12.04.2023 20:56 8,1 C 7,2 C 4,4 C 91 % 999,6 hPa 0,0 l/m 0 min 0 min 0 W/m 6,4 km/h (2 Bft) 97,87 %
12.04.2023 20:58 8,1 C 7,2 C 4,4 C 91 % 999,6 hPa 0,0 l/m 0 min 0 min 0 W/m 6,4 km/h (2 Bft) 97,87 %
12.04.2023 21:00 8,1 C 7,2 C 4,4 C 91 % 999,7 hPa 0,0 l/m 0 min 0 min 0 W/m 6,4 km/h (2 Bft) 97,83 %
12.04.2023 21:02 8,1 C 7,2 C 4,4 C 91 % 999,6 hPa 0,0 l/m 0 min 0 min 0 W/m 6,4 km/h (2 Bft) 95,74 %
12.04.2023 21:04 8,1 C 7,2 C 4,4 C 91 % 999,7 hPa 0,0 l/m 0 min 0 min 0 W/m 6,4 km/h (2 Bft) 95,83 %
12.04.2023 21:06 8,1 C 7,2 C 4,4 C 91 % 999,7 hPa 0,0 l/m 0 min 0 min 0 W/m 6,4 km/h (2 Bft) 98,31 %
12.04.2023 21:08 8,1 C 7,2 C 4,4 C 91 % 999,7 hPa 0,0 l/m 0 min 0 min 0 W/m 6,4 km/h (2 Bft) 97,14 %
12.04.2023 21:10 8,1 C 7,2 C 4,4 C 91 % 999,8 hPa 0,0 l/m 0 min 0 min 0 W/m 3,2 km/h (1 Bft) 97,87 %
12.04.2023 21:12 8,1 C 7,2 C 4,4 C 91 % 999,8 hPa 0,0 l/m 0 min 0 min 0 W/m 6,4 km/h (2 Bft) 97,83 %
12.04.2023 21:14 8,0 C 7,2 C 4,4 C 90 % 999,8 hPa 0,0 l/m 0 min 0 min 0 W/m 6,4 km/h (2 Bft) 97,87 %
12.04.2023 21:16 8,0 C 7,2 C 4,4 C 90 % 999,8 hPa 0,0 l/m 0 min 0 min 0 W/m 9,7 km/h (2 Bft) 97,87 %
12.04.2023 21:18 8,0 C 7,2 C 4,4 C 90 % 999,8 hPa 0,0 l/m 0 min 0 min 0 W/m 12,9 km/h (3 Bft) 95,74 %
12.04.2023 21:20 7,9 C 7,2 C 4,4 C 90 % 999,8 hPa 0,0 l/m 0 min 0 min 0 W/m 9,7 km/h (2 Bft) 97,87 %
12.04.2023 21:22 7,9 C 7,2 C 4,4 C 90 % 999,8 hPa 0,0 l/m 0 min 0 min 0 W/m 12,9 km/h (3 Bft) 100,00 %
12.04.2023 21:24 7,9 C 7,2 C 4,4 C 90 % 999,8 hPa 0,0 l/m 0 min 0 min 0 W/m 12,9 km/h (3 Bft) 95,74 %
12.04.2023 21:26 7,8 C 7,2 C 4,4 C 89 % 999,9 hPa 0,0 l/m 0 min 0 min 0 W/m 19,3 km/h (3 Bft) 100,00 %
12.04.2023 21:28 7,8 C 7,2 C 3,9 C 89 % 999,9 hPa 0,0 l/m 0 min 0 min 0 W/m 12,9 km/h (3 Bft) 97,87 %
12.04.2023 21:30 7,8 C 7,2 C 3,9 C 89 % 999,9 hPa 0,0 l/m 0 min 0 min 0 W/m 12,9 km/h (3 Bft) 100,00 %
12.04.2023 21:32 7,7 C 7,2 C 3,9 C 88 % 999,9 hPa 0,0 l/m 0 min 0 min 0 W/m 22,5 km/h (4 Bft) 97,87 %
12.04.2023 21:34 7,6 C 6,7 C 3,9 C 87 % 999,8 hPa 0,0 l/m 0 min 0 min 0 W/m 12,9 km/h (3 Bft) 95,74 %
12.04.2023 21:36 7,6 C 6,7 C 3,9 C 87 % 999,9 hPa 0,0 l/m 0 min 0 min 0 W/m 16,1 km/h (3 Bft) 100,00 %
12.04.2023 21:38 7,6 C 6,7 C 3,9 C 86 % 999,9 hPa 0,0 l/m 0 min 0 min 0 W/m 12,9 km/h (3 Bft) 100,00 %
12.04.2023 21:40 7,5 C 6,7 C 3,9 C 86 % 999,8 hPa 0,0 l/m 0 min 0 min 0 W/m 16,1 km/h (3 Bft) 100,00 %
12.04.2023 21:42 7,4 C 6,7 C 3,9 C 85 % 999,9 hPa 0,0 l/m 0 min 0 min 0 W/m 9,7 km/h (2 Bft) 97,87 %
12.04.2023 21:44 7,4 C 6,7 C 3,9 C 85 % 999,9 hPa 0,0 l/m 0 min 0 min 0 W/m 9,7 km/h (2 Bft) 95,74 %
12.04.2023 21:46 7,4 C 6,7 C 3,9 C 85 % 1000,0 hPa 0,0 l/m 0 min 0 min 0 W/m 12,9 km/h (3 Bft) 100,00 %
12.04.2023 21:48 7,4 C 6,7 C 3,9 C 84 % 999,9 hPa 0,0 l/m 0 min 0 min 0 W/m 9,7 km/h (2 Bft) 95,74 %
12.04.2023 21:50 7,3 C 6,7 C 3,3 C 84 % 999,9 hPa 0,0 l/m 0 min 0 min 0 W/m 16,1 km/h (3 Bft) 98,15 %
12.04.2023 21:52 7,3 C 6,7 C 3,3 C 84 % 1000,1 hPa 0,0 l/m 0 min 0 min 0 W/m 12,9 km/h (3 Bft) 100,00 %
12.04.2023 21:54 7,3 C 6,7 C 2,8 C 84 % 1000,4 hPa 0,0 l/m 0 min 2 min 0 W/m 22,5 km/h (4 Bft) 97,83 %
12.04.2023 21:56 7,3 C 6,1 C 2,2 C 85 % 1000,7 hPa 0,4 l/m 0 min 2 min 0 W/m 22,5 km/h (4 Bft) 97,87 %
12.04.2023 21:58 7,3 C 5,6 C 1,7 C 85 % 1000,8 hPa 0,6 l/m 0 min 2 min 0 W/m 22,5 km/h (4 Bft) 95,74 %
12.04.2023 22:00 7,2 C 5,6 C 1,7 C 85 % 1000,6 hPa 0,4 l/m 0 min 2 min 0 W/m 12,9 km/h (3 Bft) 97,87 %
12.04.2023 22:02 7,1 C 5,6 C 1,7 C 86 % 1000,5 hPa 0,0 l/m 0 min 2 min 0 W/m 19,3 km/h (3 Bft) 91,49 %
12.04.2023 22:04 7,0 C 5,6 C 1,7 C 86 % 1000,4 hPa 0,2 l/m 0 min 2 min 0 W/m 9,7 km/h (2 Bft) 91,49 %
12.04.2023 22:06 7,0 C 5,6 C 1,7 C 87 % 1000,5 hPa 0,0 l/m 0 min 2 min 0 W/m 12,9 km/h (3 Bft) 94,83 %
12.04.2023 22:08 6,9 C 5,6 C 1,7 C 87 % 1000,5 hPa 0,0 l/m 0 min 0 min 0 W/m 16,1 km/h (3 Bft) 97,14 %
12.04.2023 22:10 6,9 C 5,0 C 1,7 C 87 % 1000,5 hPa 0,0 l/m 0 min 0 min 0 W/m 16,1 km/h (3 Bft) 97,92 %
12.04.2023 22:12 6,8 C 5,0 C 1,7 C 87 % 1000,4 hPa 0,0 l/m 0 min 0 min 0 W/m 16,1 km/h (3 Bft) 93,62 %
12.04.2023 22:14 6,7 C 5,0 C 1,7 C 87 % 1000,3 hPa 0,0 l/m 0 min 0 min 0 W/m 12,9 km/h (3 Bft) 95,74 %
12.04.2023 22:16 6,7 C 5,0 C 1,7 C 88 % 1000,1 hPa 0,0 l/m 0 min 2 min 0 W/m 19,3 km/h (3 Bft) 91,49 %
12.04.2023 22:18 6,6 C 5,0 C 1,7 C 88 % 1000,1 hPa 0,0 l/m 0 min 2 min 0 W/m 16,1 km/h (3 Bft) 93,62 %
12.04.2023 22:20 6,5 C 5,0 C 1,7 C 87 % 1000,2 hPa 0,0 l/m 0 min 2 min 0 W/m 16,1 km/h (3 Bft) 97,83 %
12.04.2023 22:22 6,5 C 5,0 C 1,7 C 88 % 1000,2 hPa 0,2 l/m 0 min 0 min 0 W/m 12,9 km/h (3 Bft) 95,74 %
12.04.2023 22:24 6,4 C 5,0 C 1,7 C 88 % 1000,1 hPa 0,0 l/m 0 min 0 min 0 W/m 12,9 km/h (3 Bft) 95,74 %
12.04.2023 22:26 6,3 C 5,0 C 1,7 C 88 % 1000,0 hPa 0,0 l/m 0 min 0 min 0 W/m 12,9 km/h (3 Bft) 97,87 %
12.04.2023 22:28 6,3 C 5,0 C 1,7 C 88 % 999,9 hPa 0,0 l/m 0 min 0 min 0 W/m 9,7 km/h (2 Bft) 97,87 %
12.04.2023 22:30 6,3 C 5,0 C 1,7 C 88 % 999,9 hPa 0,0 l/m 0 min 0 min 0 W/m 6,4 km/h (2 Bft) 97,87 %
12.04.2023 22:32 6,2 C 4,4 C 1,1 C 89 % 999,9 hPa 0,0 l/m 0 min 0 min 0 W/m 9,7 km/h (2 Bft) 97,87 %
12.04.2023 22:34 6,2 C 5,0 C 1,1 C 89 % 999,9 hPa 0,0 l/m 0 min 0 min 0 W/m 6,4 km/h (2 Bft) 97,83 %
12.04.2023 22:36 6,2 C 5,0 C 1,7 C 89 % 999,8 hPa 0,0 l/m 0 min 0 min 0 W/m 9,7 km/h (2 Bft) 97,87 %
12.04.2023 22:38 6,1 C 5,0 C 1,1 C 89 % 999,8 hPa 0,0 l/m 0 min 0 min 0 W/m 9,7 km/h (2 Bft) 97,87 %
12.04.2023 22:40 6,1 C 4,4 C 1,1 C 89 % 999,7 hPa 0,0 l/m 0 min 0 min 0 W/m 6,4 km/h (2 Bft) 97,87 %
12.04.2023 22:42 6,1 C 4,4 C 1,1 C 89 % 999,7 hPa 0,0 l/m 0 min 0 min 0 W/m 12,9 km/h (3 Bft) 97,87 %
12.04.2023 22:44 6,0 C 4,4 C 1,1 C 89 % 999,7 hPa 0,0 l/m 0 min 0 min 0 W/m 12,9 km/h (3 Bft) 97,87 %
12.04.2023 22:46 5,9 C 4,4 C 1,1 C 90 % 999,7 hPa 0,0 l/m 0 min 0 min 0 W/m 16,1 km/h (3 Bft) 95,65 %
12.04.2023 22:48 5,9 C 4,4 C 1,1 C 90 % 999,7 hPa 0,0 l/m 0 min 0 min 0 W/m 12,9 km/h (3 Bft) 97,87 %
12.04.2023 22:50 5,9 C 4,4 C 1,1 C 90 % 999,6 hPa 0,0 l/m 0 min 0 min 0 W/m 6,4 km/h (2 Bft) 100,00 %
12.04.2023 22:52 5,9 C 4,4 C 1,1 C 90 % 999,7 hPa 0,0 l/m 0 min 0 min 0 W/m 6,4 km/h (2 Bft) 100,00 %
12.04.2023 22:54 5,9 C 5,0 C 1,7 C 90 % 999,7 hPa 0,0 l/m 0 min 0 min 0 W/m 12,9 km/h (3 Bft) 100,00 %
12.04.2023 22:56 5,8 C 5,0 C 1,7 C 90 % 999,7 hPa 0,0 l/m 0 min 0 min 0 W/m 12,9 km/h (3 Bft) 100,00 %
12.04.2023 22:58 5,8 C 5,0 C 1,7 C 90 % 999,7 hPa 0,0 l/m 0 min 0 min 0 W/m 6,4 km/h (2 Bft) 97,87 %
12.04.2023 23:00 5,8 C 5,0 C 1,7 C 90 % 999,6 hPa 0,0 l/m 0 min 0 min 0 W/m 9,7 km/h (2 Bft) 97,83 %
12.04.2023 23:02 5,8 C 5,0 C 1,7 C 91 % 999,7 hPa 0,0 l/m 0 min 0 min 0 W/m 3,2 km/h (1 Bft) 97,87 %
12.04.2023 23:04 5,8 C 5,0 C 1,7 C 91 % 999,6 hPa 0,0 l/m 0 min 0 min 0 W/m 6,4 km/h (2 Bft) 100,00 %
12.04.2023 23:06 5,8 C 5,0 C 1,7 C 91 % 999,6 hPa 0,0 l/m 0 min 0 min 0 W/m 6,4 km/h (2 Bft) 98,31 %
12.04.2023 23:08 5,8 C 5,0 C 1,7 C 91 % 999,6 hPa 0,0 l/m 0 min 0 min 0 W/m 12,9 km/h (3 Bft) 100,00 %
12.04.2023 23:10 5,7 C 4,4 C 1,1 C 91 % 999,6 hPa 0,0 l/m 0 min 0 min 0 W/m 12,9 km/h (3 Bft) 100,00 %
12.04.2023 23:12 5,7 C 4,4 C 1,1 C 91 % 999,6 hPa 0,0 l/m 0 min 0 min 0 W/m 6,4 km/h (2 Bft) 100,00 %
12.04.2023 23:14 5,7 C 4,4 C 1,1 C 91 % 999,6 hPa 0,0 l/m 0 min 0 min 0 W/m 12,9 km/h (3 Bft) 100,00 %
12.04.2023 23:16 5,7 C 4,4 C 1,1 C 91 % 999,7 hPa 0,0 l/m 0 min 0 min 0 W/m 12,9 km/h (3 Bft) 100,00 %
12.04.2023 23:18 5,7 C 4,4 C 1,1 C 91 % 999,6 hPa 0,0 l/m 0 min 0 min 0 W/m 9,7 km/h (2 Bft) 100,00 %
12.04.2023 23:20 5,7 C 4,4 C 1,7 C 91 % 999,7 hPa 0,0 l/m 0 min 0 min 0 W/m 3,2 km/h (1 Bft) 100,00 %
12.04.2023 23:22 5,6 C 5,0 C 1,7 C 92 % 999,7 hPa 0,0 l/m 0 min 0 min 0 W/m 9,7 km/h (2 Bft) 100,00 %
12.04.2023 23:24 5,6 C 5,0 C 1,7 C 92 % 999,7 hPa 0,0 l/m 0 min 0 min 0 W/m 16,1 km/h (3 Bft) 100,00 %
12.04.2023 23:26 5,6 C 5,0 C 1,7 C 92 % 999,7 hPa 0,0 l/m 0 min 0 min 0 W/m 12,9 km/h (3 Bft) 100,00 %
12.04.2023 23:28 5,6 C 5,0 C 1,1 C 92 % 999,7 hPa 0,0 l/m 0 min 0 min 0 W/m 16,1 km/h (3 Bft) 100,00 %
12.04.2023 23:30 5,6 C 5,0 C 1,1 C 92 % 999,5 hPa 0,0 l/m 0 min 0 min 0 W/m 19,3 km/h (3 Bft) 97,87 %
12.04.2023 23:32 5,6 C 5,0 C 1,1 C 92 % 999,4 hPa 0,0 l/m 0 min 0 min 0 W/m 12,9 km/h (3 Bft) 97,87 %
12.04.2023 23:34 5,6 C 5,0 C 1,1 C 92 % 999,5 hPa 0,0 l/m 0 min 0 min 0 W/m 12,9 km/h (3 Bft) 96,00 %
12.04.2023 23:36 5,6 C 5,0 C 1,1 C 92 % 999,4 hPa 0,0 l/m 0 min 0 min 0 W/m 12,9 km/h (3 Bft) 97,87 %
12.04.2023 23:38 5,6 C 5,0 C 1,1 C 92 % 999,4 hPa 0,0 l/m 0 min 0 min 0 W/m 12,9 km/h (3 Bft) 97,83 %
12.04.2023 23:40 5,6 C 5,0 C 1,1 C 92 % 999,4 hPa 0,0 l/m 0 min 0 min 0 W/m 16,1 km/h (3 Bft) 97,87 %
12.04.2023 23:42 5,6 C 5,0 C 1,1 C 92 % 999,3 hPa 0,0 l/m 0 min 0 min 0 W/m 16,1 km/h (3 Bft) 95,74 %
12.04.2023 23:44 5,7 C 5,0 C 1,1 C 92 % 999,3 hPa 0,0 l/m 0 min 0 min 0 W/m 12,9 km/h (3 Bft) 97,37 %
12.04.2023 23:46 5,7 C 5,0 C 1,7 C 93 % 999,2 hPa 0,0 l/m 0 min 0 min 0 W/m 12,9 km/h (3 Bft) 97,87 %
12.04.2023 23:48 5,7 C 5,0 C 1,7 C 93 % 999,2 hPa 0,0 l/m 0 min 0 min 0 W/m 12,9 km/h (3 Bft) 97,87 %
12.04.2023 23:50 5,7 C 5,0 C 1,1 C 93 % 999,2 hPa 0,0 l/m 0 min 0 min 0 W/m 16,1 km/h (3 Bft) 97,87 %
12.04.2023 23:52 5,7 C 5,0 C 1,7 C 93 % 999,1 hPa 0,0 l/m 0 min 0 min 0 W/m 16,1 km/h (3 Bft) 97,83 %
12.04.2023 23:54 5,7 C 5,0 C 1,7 C 93 % 999,1 hPa 0,0 l/m 0 min 0 min 0 W/m 16,1 km/h (3 Bft) 95,83 %
12.04.2023 23:56 5,7 C 5,0 C 1,7 C 93 % 999,1 hPa 0,0 l/m 0 min 0 min 0 W/m 16,1 km/h (3 Bft) 91,49 %
12.04.2023 23:58 5,7 C 5,0 C 1,7 C 93 % 999,2 hPa 0,0 l/m 0 min 0 min 0 W/m 12,9 km/h (3 Bft) 95,74 %
_ Min-Zeit 23:22 22:32 22:32 00:00 12:00 - - - - 19:04 15:12
Minimum _ 5,6 C 4,4 C 1,1 C 74 % 998,1 hPa - - - - 0,0 km/h (0 Bft) 46,15 %
_ Max-Zeit 14:14 14:10 14:12 11:06 00:00 16:52 12:07 01:02 14:08 16:52 00:07
Maximum _ 12,7 C 18,9 C 10,0 C 98 % 1009,8 hPa 0,8 l/m 3 min 2 min 747 W/m 38,6 km/h
NW (5 Bft)
100,00 %
Durchschnitt _ 8,8 C 8,5 C 4,5 C 89 % 1001,0 hPa #11,2 l/m #2:45 h #8:28 h 169 W/m 14,0 km/h (3 Bft) 97,25 %
© 2023 W. Hausmann